2016 Cux-Wetter.de -Die Nutzung der Wetterdaten nur mit ausdrcklicher Genehmigung
Wetterdaten: Sonntag, 24.12.2017
Datum Zeit Temp. A. Feuchte A. Luftdruck Regen Wind Richtung Richtung Sonnenschein Solar Taupunkt Windchill Windben
24.12.2017 00:00 7,4 C 97 % 1019,1 hPa 0,0 l/m 16,5 km/h (3 Bft) S-SW 211 0 min 0 W/m 7,0 C 1,3 C 29,0 km/h (5 Bft)
24.12.2017 00:03 7,4 C 97 % 1019,1 hPa 0,0 l/m 16,0 km/h (3 Bft) W-SW 240 0 min 0 W/m 7,0 C 1,5 C 30,6 km/h (5 Bft)
24.12.2017 00:06 7,3 C 97 % 1019,1 hPa 0,0 l/m 17,7 km/h (3 Bft) W-SW 239 0 min 0 W/m 6,9 C 0,7 C 27,4 km/h (5 Bft)
24.12.2017 00:09 7,3 C 97 % 1019,1 hPa 0,0 l/m 20,2 km/h (4 Bft) W-NW 283 0 min 0 W/m 6,9 C -0,3 C 37,0 km/h (5 Bft)
24.12.2017 00:12 7,4 C 97 % 1019,0 hPa 0,0 l/m 22,2 km/h (4 Bft) SW 236 0 min 0 W/m 7,0 C -0,8 C 38,6 km/h (6 Bft)
24.12.2017 00:15 7,4 C 97 % 1019,0 hPa 0,0 l/m 20,4 km/h (4 Bft) SW 232 0 min 0 W/m 7,0 C -0,2 C 41,8 km/h (6 Bft)
24.12.2017 00:18 7,4 C 97 % 1019,0 hPa 0,0 l/m 22,8 km/h (4 Bft) W 260 0 min 0 W/m 7,0 C -1,0 C 40,2 km/h (6 Bft)
24.12.2017 00:21 7,4 C 97 % 1019,1 hPa 0,0 l/m 17,1 km/h (3 Bft) W-NW 284 0 min 0 W/m 7,0 C 1,1 C 32,2 km/h (5 Bft)
24.12.2017 00:24 7,4 C 97 % 1019,2 hPa 0,0 l/m 15,8 km/h (3 Bft) W-SW 240 0 min 0 W/m 7,0 C 1,6 C 25,7 km/h (4 Bft)
24.12.2017 00:27 7,4 C 97 % 1019,1 hPa 0,0 l/m 19,5 km/h (3 Bft) W 259 0 min 0 W/m 7,0 C 0,1 C 30,6 km/h (5 Bft)
24.12.2017 00:30 7,4 C 97 % 1019,1 hPa 0,0 l/m 15,1 km/h (3 Bft) W 265 0 min 0 W/m 7,0 C 1,9 C 25,7 km/h (4 Bft)
24.12.2017 00:33 7,3 C 97 % 1019,1 hPa 0,0 l/m 18,1 km/h (3 Bft) W-SW 240 0 min 0 W/m 6,9 C 0,5 C 32,2 km/h (5 Bft)
24.12.2017 00:36 7,3 C 97 % 1018,9 hPa 0,0 l/m 20,8 km/h (4 Bft) S-SW 209 0 min 0 W/m 6,9 C -0,5 C 32,2 km/h (5 Bft)
24.12.2017 00:39 7,3 C 97 % 1018,9 hPa 0,0 l/m 20,2 km/h (4 Bft) W-SW 247 0 min 0 W/m 6,9 C -0,3 C 33,8 km/h (5 Bft)
24.12.2017 00:42 7,3 C 97 % 1018,9 hPa 0,0 l/m 20,6 km/h (4 Bft) W 260 0 min 0 W/m 6,9 C -0,4 C 32,2 km/h (5 Bft)
24.12.2017 00:45 7,3 C 97 % 1019,0 hPa 0,0 l/m 17,0 km/h (3 Bft) SW 220 0 min 0 W/m 6,9 C 1,0 C 27,4 km/h (5 Bft)
24.12.2017 00:48 7,3 C 97 % 1019,1 hPa 0,0 l/m 16,1 km/h (3 Bft) SW 219 0 min 0 W/m 6,9 C 1,4 C 24,1 km/h (4 Bft)
24.12.2017 00:51 7,3 C 97 % 1019,0 hPa 0,0 l/m 15,9 km/h (3 Bft) W-SW 250 0 min 0 W/m 6,9 C 1,5 C 33,8 km/h (5 Bft)
24.12.2017 00:54 7,3 C 97 % 1019,0 hPa 0,0 l/m 16,7 km/h (3 Bft) W-NW 290 0 min 0 W/m 6,9 C 1,1 C 30,6 km/h (5 Bft)
24.12.2017 00:57 7,3 C 97 % 1018,9 hPa 0,0 l/m 18,8 km/h (3 Bft) SW 216 0 min 0 W/m 6,9 C 0,2 C 33,8 km/h (5 Bft)
24.12.2017 01:00 7,3 C 97 % 1018,9 hPa 0,0 l/m 19,5 km/h (3 Bft) SW 223 0 min 0 W/m 6,9 C -0,0 C 33,8 km/h (5 Bft)
24.12.2017 01:03 7,3 C 97 % 1018,9 hPa 0,0 l/m 18,0 km/h (3 Bft) SW 232 0 min 0 W/m 6,9 C 0,6 C 29,0 km/h (5 Bft)
24.12.2017 01:06 7,3 C 97 % 1018,7 hPa 0,0 l/m 21,2 km/h (4 Bft) SW 228 0 min 0 W/m 6,9 C -0,6 C 37,0 km/h (5 Bft)
24.12.2017 01:09 7,3 C 97 % 1018,9 hPa 0,0 l/m 21,6 km/h (4 Bft) SW 221 0 min 0 W/m 6,9 C -0,8 C 33,8 km/h (5 Bft)
24.12.2017 01:12 7,3 C 97 % 1018,8 hPa 0,0 l/m 19,9 km/h (4 Bft) W-SW 238 0 min 0 W/m 6,9 C -0,2 C 35,4 km/h (5 Bft)
24.12.2017 01:15 7,3 C 97 % 1018,8 hPa 0,0 l/m 19,5 km/h (3 Bft) W-SW 240 0 min 0 W/m 6,9 C -0,0 C 35,4 km/h (5 Bft)
24.12.2017 01:18 7,3 C 97 % 1018,8 hPa 0,0 l/m 20,2 km/h (4 Bft) SW 232 0 min 0 W/m 6,9 C -0,3 C 32,2 km/h (5 Bft)
24.12.2017 01:21 7,3 C 97 % 1018,9 hPa 0,0 l/m 23,3 km/h (4 Bft) W-NW 289 0 min 0 W/m 6,9 C -1,3 C 41,8 km/h (6 Bft)
24.12.2017 01:24 7,4 C 97 % 1018,9 hPa 0,0 l/m 21,9 km/h (4 Bft) W-SW 258 0 min 0 W/m 7,0 C -0,7 C 35,4 km/h (5 Bft)
24.12.2017 01:27 7,4 C 97 % 1018,8 hPa 0,0 l/m 21,3 km/h (4 Bft) S-SW 200 0 min 0 W/m 7,0 C -0,5 C 33,8 km/h (5 Bft)
24.12.2017 01:30 7,3 C 97 % 1018,7 hPa 0,0 l/m 27,0 km/h (5 Bft) W 269 0 min 0 W/m 6,9 C -2,4 C 41,8 km/h (6 Bft)
24.12.2017 01:33 7,4 C 97 % 1018,7 hPa 0,0 l/m 21,6 km/h (4 Bft) W-NW 288 0 min 0 W/m 7,0 C -0,6 C 35,4 km/h (5 Bft)
24.12.2017 01:36 7,3 C 97 % 1018,7 hPa 0,0 l/m 25,3 km/h (4 Bft) W-SW 248 0 min 0 W/m 6,9 C -1,9 C 43,5 km/h (6 Bft)
24.12.2017 01:39 7,3 C 97 % 1018,7 hPa 0,0 l/m 23,4 km/h (4 Bft) W-SW 247 0 min 0 W/m 6,9 C -1,3 C 41,8 km/h (6 Bft)
24.12.2017 01:42 7,3 C 97 % 1018,7 hPa 0,0 l/m 23,6 km/h (4 Bft) SW 234 0 min 0 W/m 6,9 C -1,4 C 43,5 km/h (6 Bft)
24.12.2017 01:45 7,3 C 97 % 1018,7 hPa 0,0 l/m 28,1 km/h (5 Bft) W-NW 292 0 min 0 W/m 6,9 C -2,7 C 45,1 km/h (6 Bft)
24.12.2017 01:48 7,3 C 97 % 1018,8 hPa 0,0 l/m 24,7 km/h (4 Bft) SW 225 0 min 0 W/m 6,9 C -1,7 C 45,1 km/h (6 Bft)
24.12.2017 01:51 7,3 C 97 % 1018,7 hPa 0,0 l/m 22,9 km/h (4 Bft) W-NW 296 0 min 0 W/m 6,9 C -1,2 C 33,8 km/h (5 Bft)
24.12.2017 01:54 7,3 C 97 % 1018,7 hPa 0,0 l/m 18,8 km/h (3 Bft) W-NW 288 0 min 0 W/m 6,9 C 0,2 C 30,6 km/h (5 Bft)
24.12.2017 01:57 7,3 C 97 % 1018,7 hPa 0,0 l/m 26,3 km/h (4 Bft) W 273 0 min 0 W/m 6,9 C -2,2 C 41,8 km/h (6 Bft)
24.12.2017 02:00 7,3 C 97 % 1018,8 hPa 0,0 l/m 24,3 km/h (4 Bft) W 268 0 min 0 W/m 6,9 C -1,6 C 40,2 km/h (6 Bft)
24.12.2017 02:03 7,3 C 97 % 1018,8 hPa 0,0 l/m 24,4 km/h (4 Bft) W 265 0 min 0 W/m 6,9 C -1,6 C 40,2 km/h (6 Bft)
24.12.2017 02:06 7,3 C 97 % 1018,7 hPa 0,0 l/m 23,0 km/h (4 Bft) W 263 0 min 0 W/m 6,9 C -1,2 C 35,4 km/h (5 Bft)
24.12.2017 02:09 7,3 C 97 % 1018,7 hPa 0,0 l/m 22,8 km/h (4 Bft) W-SW 254 0 min 0 W/m 6,9 C -1,2 C 32,2 km/h (5 Bft)
24.12.2017 02:12 7,3 C 97 % 1018,8 hPa 0,0 l/m 24,4 km/h (4 Bft) W-SW 243 0 min 0 W/m 6,9 C -1,6 C 41,8 km/h (6 Bft)
24.12.2017 02:15 7,3 C 97 % 1018,8 hPa 0,0 l/m 23,3 km/h (4 Bft) W-SW 240 0 min 0 W/m 6,9 C -1,3 C 40,2 km/h (6 Bft)
24.12.2017 02:18 7,3 C 97 % 1018,9 hPa 0,0 l/m 23,0 km/h (4 Bft) W-SW 246 0 min 0 W/m 6,9 C -1,2 C 35,4 km/h (5 Bft)
24.12.2017 02:21 7,3 C 97 % 1018,8 hPa 0,0 l/m 22,9 km/h (4 Bft) SW 219 0 min 0 W/m 6,9 C -1,2 C 33,8 km/h (5 Bft)
24.12.2017 02:24 7,3 C 97 % 1018,8 hPa 0,0 l/m 22,7 km/h (4 Bft) SW 233 0 min 0 W/m 6,9 C -1,1 C 37,0 km/h (5 Bft)
24.12.2017 02:27 7,3 C 97 % 1018,8 hPa 0,0 l/m 22,0 km/h (4 Bft) W-SW 237 0 min 0 W/m 6,9 C -0,9 C 37,0 km/h (5 Bft)
24.12.2017 02:30 7,3 C 97 % 1018,9 hPa 0,0 l/m 20,6 km/h (4 Bft) W 265 0 min 0 W/m 6,9 C -0,4 C 38,6 km/h (6 Bft)
24.12.2017 02:33 7,3 C 97 % 1018,9 hPa 0,0 l/m 19,7 km/h (3 Bft) W 271 0 min 0 W/m 6,9 C -0,1 C 33,8 km/h (5 Bft)
24.12.2017 02:36 7,3 C 97 % 1018,9 hPa 0,0 l/m 20,7 km/h (4 Bft) W-SW 244 0 min 0 W/m 6,9 C -0,5 C 30,6 km/h (5 Bft)
24.12.2017 02:39 7,3 C 97 % 1019,0 hPa 0,0 l/m 24,0 km/h (4 Bft) W-SW 242 0 min 0 W/m 6,9 C -1,5 C 41,8 km/h (6 Bft)
24.12.2017 02:42 7,3 C 97 % 1018,9 hPa 0,0 l/m 20,0 km/h (4 Bft) W-SW 250 0 min 0 W/m 6,9 C -0,2 C 43,5 km/h (6 Bft)
24.12.2017 02:45 7,3 C 97 % 1018,9 hPa 0,0 l/m 20,6 km/h (4 Bft) SW 229 0 min 0 W/m 6,9 C -0,4 C 33,8 km/h (5 Bft)
24.12.2017 02:48 7,3 C 97 % 1018,9 hPa 0,0 l/m 17,8 km/h (3 Bft) SW 235 0 min 0 W/m 6,9 C 0,6 C 32,2 km/h (5 Bft)
24.12.2017 02:51 7,3 C 97 % 1019,0 hPa 0,0 l/m 20,3 km/h (4 Bft) SW 219 0 min 0 W/m 6,9 C -0,3 C 29,0 km/h (5 Bft)
24.12.2017 02:54 7,3 C 97 % 1018,9 hPa 0,0 l/m 21,8 km/h (4 Bft) W-NW 284 0 min 0 W/m 6,9 C -0,8 C 32,2 km/h (5 Bft)
24.12.2017 02:57 7,3 C 97 % 1019,0 hPa 0,0 l/m 19,5 km/h (3 Bft) W-SW 255 0 min 0 W/m 6,9 C -0,0 C 33,8 km/h (5 Bft)
24.12.2017 03:00 7,3 C 97 % 1018,9 hPa 0,0 l/m 18,8 km/h (3 Bft) SW 232 0 min 0 W/m 6,9 C 0,2 C 30,6 km/h (5 Bft)
24.12.2017 03:03 7,4 C 97 % 1018,9 hPa 0,0 l/m 19,3 km/h (3 Bft) S-SW 213 0 min 0 W/m 7,0 C 0,2 C 35,4 km/h (5 Bft)
24.12.2017 03:06 7,4 C 97 % 1019,0 hPa 0,0 l/m 18,2 km/h (3 Bft) SW 234 0 min 0 W/m 7,0 C 0,6 C 33,8 km/h (5 Bft)
24.12.2017 03:09 7,4 C 97 % 1018,9 hPa 0,0 l/m 21,9 km/h (4 Bft) SW 229 0 min 0 W/m 7,0 C -0,7 C 45,1 km/h (6 Bft)
24.12.2017 03:12 7,4 C 97 % 1018,9 hPa 0,0 l/m 20,3 km/h (4 Bft) W-SW 246 0 min 0 W/m 7,0 C -0,2 C 35,4 km/h (5 Bft)
24.12.2017 03:15 7,4 C 97 % 1018,9 hPa 0,0 l/m 22,3 km/h (4 Bft) W-SW 252 0 min 0 W/m 7,0 C -0,9 C 41,8 km/h (6 Bft)
24.12.2017 03:18 7,4 C 97 % 1018,8 hPa 0,0 l/m 18,8 km/h (3 Bft) W-SW 250 0 min 0 W/m 7,0 C 0,4 C 38,6 km/h (6 Bft)
24.12.2017 03:21 7,4 C 97 % 1018,8 hPa 0,0 l/m 18,8 km/h (3 Bft) W-SW 237 0 min 0 W/m 7,0 C 0,4 C 33,8 km/h (5 Bft)
24.12.2017 03:24 7,4 C 97 % 1018,8 hPa 0,0 l/m 19,3 km/h (3 Bft) S-SW 213 0 min 0 W/m 7,0 C 0,2 C 37,0 km/h (5 Bft)
24.12.2017 03:27 7,4 C 97 % 1018,8 hPa 0,0 l/m 20,9 km/h (4 Bft) SW 227 0 min 0 W/m 7,0 C -0,4 C 38,6 km/h (6 Bft)
24.12.2017 03:30 7,4 C 97 % 1018,8 hPa 0,0 l/m 22,6 km/h (4 Bft) W-SW 245 0 min 0 W/m 7,0 C -1,0 C 41,8 km/h (6 Bft)
24.12.2017 03:33 7,4 C 97 % 1018,7 hPa 0,0 l/m 22,3 km/h (4 Bft) S-SW 200 0 min 0 W/m 7,0 C -0,9 C 38,6 km/h (6 Bft)
24.12.2017 03:36 7,5 C 97 % 1018,8 hPa 0,0 l/m 22,3 km/h (4 Bft) W-NW 294 0 min 0 W/m 7,1 C -0,7 C 33,8 km/h (5 Bft)
24.12.2017 03:39 7,5 C 97 % 1018,7 hPa 0,0 l/m 20,2 km/h (4 Bft) W 259 0 min 0 W/m 7,1 C -0,0 C 38,6 km/h (6 Bft)
24.12.2017 03:42 7,5 C 97 % 1018,8 hPa 0,0 l/m 21,7 km/h (4 Bft) SW 221 0 min 0 W/m 7,1 C -0,5 C 38,6 km/h (6 Bft)
24.12.2017 03:45 7,6 C 97 % 1018,8 hPa 0,0 l/m 19,3 km/h (3 Bft) W-SW 254 0 min 0 W/m 7,2 C 0,4 C 32,2 km/h (5 Bft)
24.12.2017 03:48 7,6 C 97 % 1018,7 hPa 0,0 l/m 20,3 km/h (4 Bft) W-SW 247 0 min 0 W/m 7,2 C 0,1 C 35,4 km/h (5 Bft)
24.12.2017 03:51 7,6 C 97 % 1018,7 hPa 0,0 l/m 19,9 km/h (4 Bft) S-SW 209 0 min 0 W/m 7,2 C 0,2 C 38,6 km/h (6 Bft)
24.12.2017 03:54 7,6 C 97 % 1018,8 hPa 0,0 l/m 20,6 km/h (4 Bft) W-SW 238 0 min 0 W/m 7,2 C -0,0 C 33,8 km/h (5 Bft)
24.12.2017 03:57 7,6 C 97 % 1018,8 hPa 0,0 l/m 17,5 km/h (3 Bft) SW 231 0 min 0 W/m 7,2 C 1,1 C 30,6 km/h (5 Bft)
24.12.2017 04:00 7,6 C 97 % 1018,7 hPa 0,0 l/m 19,0 km/h (3 Bft) W-SW 246 0 min 0 W/m 7,2 C 0,6 C 32,2 km/h (5 Bft)
24.12.2017 04:03 7,6 C 97 % 1018,6 hPa 0,0 l/m 20,7 km/h (4 Bft) W 279 0 min 0 W/m 7,2 C -0,1 C 38,6 km/h (6 Bft)
24.12.2017 04:06 7,6 C 97 % 1018,6 hPa 0,0 l/m 19,0 km/h (3 Bft) W-SW 254 0 min 0 W/m 7,2 C 0,6 C 29,0 km/h (5 Bft)
24.12.2017 04:09 7,6 C 97 % 1018,6 hPa 0,0 l/m 21,9 km/h (4 Bft) W-SW 258 0 min 0 W/m 7,2 C -0,5 C 35,4 km/h (5 Bft)
24.12.2017 04:12 7,6 C 97 % 1018,6 hPa 0,0 l/m 17,9 km/h (3 Bft) SW 223 0 min 0 W/m 7,2 C 1,0 C 30,6 km/h (5 Bft)
24.12.2017 04:15 7,6 C 97 % 1018,6 hPa 0,0 l/m 20,1 km/h (4 Bft) W-SW 254 0 min 0 W/m 7,2 C 0,2 C 32,2 km/h (5 Bft)
24.12.2017 04:18 7,6 C 97 % 1018,5 hPa 0,0 l/m 22,0 km/h (4 Bft) W-SW 251 0 min 0 W/m 7,2 C -0,5 C 38,6 km/h (6 Bft)
24.12.2017 04:21 7,6 C 97 % 1018,5 hPa 0,0 l/m 19,8 km/h (3 Bft) W-SW 245 0 min 0 W/m 7,2 C 0,3 C 30,6 km/h (5 Bft)
24.12.2017 04:24 7,6 C 97 % 1018,5 hPa 0,0 l/m 20,3 km/h (4 Bft) S-SW 201 0 min 0 W/m 7,2 C 0,1 C 32,2 km/h (5 Bft)
24.12.2017 04:27 7,6 C 97 % 1018,4 hPa 0,0 l/m 20,3 km/h (4 Bft) SW 225 0 min 0 W/m 7,2 C 0,1 C 40,2 km/h (6 Bft)
24.12.2017 04:30 7,6 C 97 % 1018,4 hPa 0,0 l/m 17,8 km/h (3 Bft) W-SW 254 0 min 0 W/m 7,2 C 1,0 C 37,0 km/h (5 Bft)
24.12.2017 04:33 7,6 C 97 % 1018,4 hPa 0,0 l/m 13,8 km/h (3 Bft) SW 225 0 min 0 W/m 7,2 C 2,8 C 29,0 km/h (5 Bft)
24.12.2017 04:36 7,6 C 97 % 1018,3 hPa 0,0 l/m 16,1 km/h (3 Bft) S-SW 208 0 min 0 W/m 7,2 C 1,7 C 37,0 km/h (5 Bft)
24.12.2017 04:39 7,6 C 97 % 1018,3 hPa 0,0 l/m 18,8 km/h (3 Bft) S-SW 209 0 min 0 W/m 7,2 C 0,6 C 38,6 km/h (6 Bft)
24.12.2017 04:42 7,6 C 97 % 1018,3 hPa 0,0 l/m 18,1 km/h (3 Bft) W 272 0 min 0 W/m 7,2 C 0,9 C 33,8 km/h (5 Bft)
24.12.2017 04:45 7,6 C 97 % 1018,3 hPa 0,0 l/m 18,7 km/h (3 Bft) S-SW 204 0 min 0 W/m 7,2 C 0,7 C 41,8 km/h (6 Bft)
24.12.2017 04:48 7,6 C 97 % 1018,2 hPa 0,0 l/m 17,3 km/h (3 Bft) SW 225 0 min 0 W/m 7,2 C 1,2 C 30,6 km/h (5 Bft)
24.12.2017 04:51 7,6 C 97 % 1018,2 hPa 0,0 l/m 19,3 km/h (3 Bft) SW 225 0 min 0 W/m 7,2 C 0,4 C 32,2 km/h (5 Bft)
24.12.2017 04:54 7,6 C 97 % 1018,1 hPa 0,0 l/m 18,2 km/h (3 Bft) W 279 0 min 0 W/m 7,2 C 0,9 C 25,7 km/h (4 Bft)
24.12.2017 04:57 7,5 C 97 % 1018,2 hPa 0,0 l/m 19,7 km/h (3 Bft) S-SW 195 0 min 0 W/m 7,1 C 0,2 C 37,0 km/h (5 Bft)
24.12.2017 05:00 7,5 C 97 % 1018,2 hPa 0,0 l/m 17,4 km/h (3 Bft) SW 234 0 min 0 W/m 7,1 C 1,1 C 30,6 km/h (5 Bft)
24.12.2017 05:03 7,5 C 97 % 1018,3 hPa 0,0 l/m 16,9 km/h (3 Bft) S-SW 194 0 min 0 W/m 7,1 C 1,3 C 32,2 km/h (5 Bft)
24.12.2017 05:06 7,5 C 97 % 1018,3 hPa 0,0 l/m 20,7 km/h (4 Bft) SW 216 0 min 0 W/m 7,1 C -0,2 C 37,0 km/h (5 Bft)
24.12.2017 05:09 7,5 C 97 % 1018,3 hPa 0,0 l/m 18,3 km/h (3 Bft) W-SW 249 0 min 0 W/m 7,1 C 0,7 C 35,4 km/h (5 Bft)
24.12.2017 05:12 7,5 C 97 % 1018,3 hPa 0,0 l/m 17,0 km/h (3 Bft) SW 233 0 min 0 W/m 7,1 C 1,2 C 29,0 km/h (5 Bft)
24.12.2017 05:15 7,5 C 97 % 1018,3 hPa 0,0 l/m 17,4 km/h (3 Bft) SW 220 0 min 0 W/m 7,1 C 1,1 C 29,0 km/h (5 Bft)
24.12.2017 05:18 7,6 C 97 % 1018,3 hPa 0,0 l/m 18,4 km/h (3 Bft) W 266 0 min 0 W/m 7,2 C 0,8 C 35,4 km/h (5 Bft)
24.12.2017 05:21 7,5 C 97 % 1018,3 hPa 0,0 l/m 17,9 km/h (3 Bft) SW 216 0 min 0 W/m 7,1 C 0,9 C 30,6 km/h (5 Bft)
24.12.2017 05:24 7,5 C 97 % 1018,2 hPa 0,0 l/m 19,4 km/h (3 Bft) W-SW 248 0 min 0 W/m 7,1 C 0,3 C 33,8 km/h (5 Bft)
24.12.2017 05:27 7,5 C 97 % 1018,2 hPa 0,0 l/m 21,1 km/h (4 Bft) W-SW 238 0 min 0 W/m 7,1 C -0,3 C 37,0 km/h (5 Bft)
24.12.2017 05:30 7,5 C 97 % 1018,2 hPa 0,0 l/m 18,3 km/h (3 Bft) SW 226 0 min 0 W/m 7,1 C 0,7 C 33,8 km/h (5 Bft)
24.12.2017 05:33 7,5 C 97 % 1018,2 hPa 0,0 l/m 16,5 km/h (3 Bft) SW 228 0 min 0 W/m 7,1 C 1,4 C 30,6 km/h (5 Bft)
24.12.2017 05:36 7,5 C 97 % 1018,2 hPa 0,0 l/m 20,2 km/h (4 Bft) W-SW 244 0 min 0 W/m 7,1 C -0,0 C 37,0 km/h (5 Bft)
24.12.2017 05:39 7,5 C 97 % 1018,1 hPa 0,0 l/m 20,4 km/h (4 Bft) W-SW 242 0 min 0 W/m 7,1 C -0,1 C 32,2 km/h (5 Bft)
24.12.2017 05:42 7,5 C 97 % 1018,1 hPa 0,0 l/m 18,4 km/h (3 Bft) SW 217 0 min 0 W/m 7,1 C 0,7 C 33,8 km/h (5 Bft)
24.12.2017 05:45 7,6 C 97 % 1018,2 hPa 0,0 l/m 17,8 km/h (3 Bft) SW 231 0 min 0 W/m 7,2 C 1,0 C 33,8 km/h (5 Bft)
24.12.2017 05:48 7,6 C 97 % 1018,1 hPa 0,0 l/m 18,0 km/h (3 Bft) W 266 0 min 0 W/m 7,2 C 0,9 C 35,4 km/h (5 Bft)
24.12.2017 05:51 7,6 C 97 % 1018,1 hPa 0,0 l/m 20,7 km/h (4 Bft) S-SW 211 0 min 0 W/m 7,2 C -0,1 C 38,6 km/h (6 Bft)
24.12.2017 05:54 7,6 C 97 % 1018,2 hPa 0,0 l/m 18,2 km/h (3 Bft) W-SW 250 0 min 0 W/m 7,2 C 0,9 C 30,6 km/h (5 Bft)
24.12.2017 05:57 7,6 C 97 % 1018,2 hPa 0,0 l/m 16,8 km/h (3 Bft) W 281 0 min 0 W/m 7,2 C 1,4 C 32,2 km/h (5 Bft)
24.12.2017 06:00 7,6 C 97 % 1018,1 hPa 0,0 l/m 17,4 km/h (3 Bft) W 273 0 min 0 W/m 7,2 C 1,2 C 32,2 km/h (5 Bft)
24.12.2017 06:03 7,6 C 97 % 1018,2 hPa 0,0 l/m 21,2 km/h (4 Bft) W 269 0 min 0 W/m 7,2 C -0,2 C 38,6 km/h (6 Bft)
24.12.2017 06:06 7,6 C 97 % 1018,2 hPa 0,0 l/m 18,3 km/h (3 Bft) SW 215 0 min 0 W/m 7,2 C 0,8 C 30,6 km/h (5 Bft)
24.12.2017 06:09 7,6 C 97 % 1018,2 hPa 0,0 l/m 20,2 km/h (4 Bft) SW 231 0 min 0 W/m 7,2 C 0,1 C 38,6 km/h (6 Bft)
24.12.2017 06:12 7,6 C 97 % 1018,2 hPa 0,0 l/m 18,5 km/h (3 Bft) SW 233 0 min 0 W/m 7,2 C 0,7 C 38,6 km/h (6 Bft)
24.12.2017 06:15 7,6 C 97 % 1018,2 hPa 0,0 l/m 19,9 km/h (4 Bft) SW 232 0 min 0 W/m 7,2 C 0,2 C 38,6 km/h (6 Bft)
24.12.2017 06:18 7,6 C 97 % 1018,1 hPa 0,0 l/m 22,4 km/h (4 Bft) SW 226 0 min 0 W/m 7,2 C -0,6 C 33,8 km/h (5 Bft)
24.12.2017 06:21 7,6 C 98 % 1018,0 hPa 0,0 l/m 20,2 km/h (4 Bft) S-SW 210 0 min 0 W/m 7,3 C 0,1 C 33,8 km/h (5 Bft)
24.12.2017 06:24 7,6 C 98 % 1018,0 hPa 0,2 l/m 18,2 km/h (3 Bft) W 263 0 min 0 W/m 7,3 C 0,9 C 29,0 km/h (5 Bft)
24.12.2017 06:27 7,6 C 98 % 1017,9 hPa 0,0 l/m 18,4 km/h (3 Bft) W 271 0 min 0 W/m 7,3 C 0,8 C 32,2 km/h (5 Bft)
24.12.2017 06:30 7,6 C 98 % 1017,9 hPa 0,0 l/m 17,8 km/h (3 Bft) W-SW 240 0 min 0 W/m 7,3 C 1,0 C 35,4 km/h (5 Bft)
24.12.2017 06:33 7,6 C 98 % 1017,7 hPa 0,0 l/m 20,8 km/h (4 Bft) SW 232 0 min 0 W/m 7,3 C -0,1 C 33,8 km/h (5 Bft)
24.12.2017 06:36 7,6 C 98 % 1017,7 hPa 0,0 l/m 18,5 km/h (3 Bft) SW 235 0 min 0 W/m 7,3 C 0,7 C 35,4 km/h (5 Bft)
24.12.2017 06:39 7,6 C 98 % 1017,7 hPa 0,0 l/m 20,9 km/h (4 Bft) W 263 0 min 0 W/m 7,3 C -0,1 C 35,4 km/h (5 Bft)
24.12.2017 06:42 7,6 C 98 % 1017,5 hPa 0,0 l/m 22,4 km/h (4 Bft) W-SW 252 0 min 0 W/m 7,3 C -0,6 C 38,6 km/h (6 Bft)
24.12.2017 06:45 7,6 C 98 % 1017,6 hPa 0,0 l/m 20,0 km/h (4 Bft) SW 233 0 min 0 W/m 7,3 C 0,2 C 33,8 km/h (5 Bft)
24.12.2017 06:48 7,6 C 98 % 1017,6 hPa 0,0 l/m 16,1 km/h (3 Bft) SW 228 0 min 0 W/m 7,3 C 1,7 C 30,6 km/h (5 Bft)
24.12.2017 06:51 7,6 C 98 % 1017,6 hPa 0,0 l/m 19,0 km/h (3 Bft) S-SW 212 0 min 0 W/m 7,3 C 0,6 C 32,2 km/h (5 Bft)
24.12.2017 06:54 7,6 C 98 % 1017,7 hPa 0,0 l/m 18,2 km/h (3 Bft) W 259 0 min 0 W/m 7,3 C 0,9 C 33,8 km/h (5 Bft)
24.12.2017 06:57 7,6 C 98 % 1017,6 hPa 0,0 l/m 17,7 km/h (3 Bft) SW 218 0 min 0 W/m 7,3 C 1,1 C 29,0 km/h (5 Bft)
24.12.2017 07:00 7,6 C 98 % 1017,6 hPa 0,0 l/m 19,6 km/h (3 Bft) SW 231 0 min 0 W/m 7,3 C 0,3 C 37,0 km/h (5 Bft)
24.12.2017 07:03 7,6 C 98 % 1017,6 hPa 0,0 l/m 21,0 km/h (4 Bft) SW 226 0 min 0 W/m 7,3 C -0,2 C 38,6 km/h (6 Bft)
24.12.2017 07:06 7,6 C 98 % 1017,6 hPa 0,0 l/m 18,4 km/h (3 Bft) SW 235 0 min 0 W/m 7,3 C 0,8 C 33,8 km/h (5 Bft)
24.12.2017 07:09 7,6 C 98 % 1017,5 hPa 0,0 l/m 20,1 km/h (4 Bft) W-SW 254 0 min 0 W/m 7,3 C 0,2 C 33,8 km/h (5 Bft)
24.12.2017 07:12 7,6 C 98 % 1017,5 hPa 0,0 l/m 20,7 km/h (4 Bft) SW 227 0 min 0 W/m 7,3 C -0,1 C 35,4 km/h (5 Bft)
24.12.2017 07:15 7,6 C 98 % 1017,5 hPa 0,0 l/m 19,1 km/h (3 Bft) SW 232 0 min 0 W/m 7,3 C 0,5 C 32,2 km/h (5 Bft)
24.12.2017 07:18 7,6 C 98 % 1017,5 hPa 0,2 l/m 20,8 km/h (4 Bft) S-SW 205 0 min 0 W/m 7,3 C -0,1 C 33,8 km/h (5 Bft)
24.12.2017 07:21 7,6 C 98 % 1017,5 hPa 0,0 l/m 19,8 km/h (3 Bft) W-SW 246 0 min 0 W/m 7,3 C 0,3 C 35,4 km/h (5 Bft)
24.12.2017 07:24 7,6 C 98 % 1017,4 hPa 0,0 l/m 18,9 km/h (3 Bft) SW 236 0 min 0 W/m 7,3 C 0,6 C 29,0 km/h (5 Bft)
24.12.2017 07:27 7,6 C 98 % 1017,4 hPa 0,0 l/m 19,4 km/h (3 Bft) SW 226 0 min 0 W/m 7,3 C 0,4 C 32,2 km/h (5 Bft)
24.12.2017 07:30 7,6 C 98 % 1017,5 hPa 0,0 l/m 16,9 km/h (3 Bft) W-SW 254 0 min 0 W/m 7,3 C 1,4 C 25,7 km/h (4 Bft)
24.12.2017 07:33 7,6 C 98 % 1017,4 hPa 0,0 l/m 17,5 km/h (3 Bft) S-SW 196 0 min 0 W/m 7,3 C 1,1 C 29,0 km/h (5 Bft)
24.12.2017 07:36 7,6 C 98 % 1017,4 hPa 0,0 l/m 18,6 km/h (3 Bft) W-SW 249 0 min 0 W/m 7,3 C 0,7 C 33,8 km/h (5 Bft)
24.12.2017 07:39 7,6 C 98 % 1017,4 hPa 0,0 l/m 21,5 km/h (4 Bft) W-SW 242 0 min 0 W/m 7,3 C -0,3 C 35,4 km/h (5 Bft)
24.12.2017 07:42 7,6 C 98 % 1017,3 hPa 0,0 l/m 20,7 km/h (4 Bft) SW 220 0 min 0 W/m 7,3 C -0,1 C 33,8 km/h (5 Bft)
24.12.2017 07:45 7,6 C 98 % 1017,3 hPa 0,0 l/m 20,4 km/h (4 Bft) SW 225 0 min 0 W/m 7,3 C 0,0 C 35,4 km/h (5 Bft)
24.12.2017 07:48 7,6 C 98 % 1017,4 hPa 0,0 l/m 18,3 km/h (3 Bft) SW 221 0 min 0 W/m 7,3 C 0,8 C 38,6 km/h (6 Bft)
24.12.2017 07:51 7,6 C 98 % 1017,4 hPa 0,0 l/m 18,0 km/h (3 Bft) S 169 0 min 0 W/m 7,3 C 0,9 C 25,7 km/h (4 Bft)
24.12.2017 07:54 7,6 C 98 % 1017,3 hPa 0,0 l/m 17,8 km/h (3 Bft) W-SW 237 0 min 0 W/m 7,3 C 1,0 C 33,8 km/h (5 Bft)
24.12.2017 07:57 7,6 C 98 % 1017,3 hPa 0,0 l/m 20,9 km/h (4 Bft) W-SW 240 0 min 0 W/m 7,3 C -0,1 C 37,0 km/h (5 Bft)
24.12.2017 08:00 7,6 C 98 % 1017,2 hPa 0,0 l/m 20,9 km/h (4 Bft) W-SW 246 0 min 0 W/m 7,3 C -0,1 C 38,6 km/h (6 Bft)
24.12.2017 08:03 7,6 C 98 % 1017,2 hPa 0,2 l/m 21,8 km/h (4 Bft) SW 233 0 min 0 W/m 7,3 C -0,4 C 40,2 km/h (6 Bft)
24.12.2017 08:06 7,6 C 98 % 1017,2 hPa 0,0 l/m 21,0 km/h (4 Bft) S-SW 198 0 min 0 W/m 7,3 C -0,2 C 38,6 km/h (6 Bft)
24.12.2017 08:09 7,6 C 98 % 1017,2 hPa 0,0 l/m 17,1 km/h (3 Bft) W-SW 244 0 min 0 W/m 7,3 C 1,3 C 29,0 km/h (5 Bft)
24.12.2017 08:12 7,6 C 98 % 1017,2 hPa 0,0 l/m 16,2 km/h (3 Bft) W-SW 244 0 min 0 W/m 7,3 C 1,7 C 29,0 km/h (5 Bft)
24.12.2017 08:15 7,6 C 98 % 1017,2 hPa 0,0 l/m 18,3 km/h (3 Bft) W-SW 237 0 min 0 W/m 7,3 C 0,8 C 33,8 km/h (5 Bft)
24.12.2017 08:18 7,6 C 98 % 1017,2 hPa 0,0 l/m 18,7 km/h (3 Bft) SW 232 0 min 0 W/m 7,3 C 0,7 C 30,6 km/h (5 Bft)
24.12.2017 08:21 7,6 C 98 % 1017,0 hPa 0,0 l/m 20,8 km/h (4 Bft) SW 236 0 min 0 W/m 7,3 C -0,1 C 35,4 km/h (5 Bft)
24.12.2017 08:24 7,6 C 98 % 1017,0 hPa 0,0 l/m 22,6 km/h (4 Bft) SW 232 0 min 0 W/m 7,3 C -0,7 C 37,0 km/h (5 Bft)
24.12.2017 08:27 7,5 C 98 % 1017,0 hPa 0,0 l/m 20,4 km/h (4 Bft) W-SW 245 0 min 0 W/m 7,2 C -0,1 C 30,6 km/h (5 Bft)
24.12.2017 08:30 7,6 C 98 % 1016,9 hPa 0,0 l/m 21,1 km/h (4 Bft) W-SW 244 0 min 0 W/m 7,3 C -0,2 C 30,6 km/h (5 Bft)
24.12.2017 08:33 7,6 C 98 % 1016,9 hPa 0,0 l/m 20,7 km/h (4 Bft) W-SW 247 0 min 0 W/m 7,3 C -0,1 C 35,4 km/h (5 Bft)
24.12.2017 08:36 7,6 C 98 % 1016,9 hPa 0,0 l/m 21,0 km/h (4 Bft) W-NW 282 0 min 0 W/m 7,3 C -0,2 C 41,8 km/h (6 Bft)
24.12.2017 08:39 7,6 C 98 % 1016,9 hPa 0,0 l/m 24,2 km/h (4 Bft) SW 232 0 min 0 W/m 7,3 C -1,2 C 33,8 km/h (5 Bft)
24.12.2017 08:42 7,6 C 98 % 1016,8 hPa 0,0 l/m 21,4 km/h (4 Bft) SW 217 0 min 0 W/m 7,3 C -0,3 C 30,6 km/h (5 Bft)
24.12.2017 08:45 7,6 C 98 % 1016,8 hPa 0,0 l/m 21,9 km/h (4 Bft) W-SW 244 0 min 0 W/m 7,3 C -0,5 C 35,4 km/h (5 Bft)
24.12.2017 08:48 7,6 C 98 % 1016,8 hPa 0,0 l/m 21,8 km/h (4 Bft) S-SW 210 0 min 0 W/m 7,3 C -0,4 C 32,2 km/h (5 Bft)
24.12.2017 08:51 7,6 C 98 % 1016,7 hPa 0,0 l/m 22,4 km/h (4 Bft) SW 232 0 min 0 W/m 7,3 C -0,6 C 38,6 km/h (6 Bft)
24.12.2017 08:54 7,6 C 98 % 1016,8 hPa 0,0 l/m 23,8 km/h (4 Bft) SW 236 0 min 0 W/m 7,3 C -1,1 C 37,0 km/h (5 Bft)
24.12.2017 08:57 7,6 C 98 % 1016,8 hPa 0,0 l/m 21,4 km/h (4 Bft) W-SW 246 0 min 0 W/m 7,3 C -0,3 C 32,2 km/h (5 Bft)
24.12.2017 09:00 7,6 C 98 % 1016,7 hPa 0,0 l/m 17,6 km/h (3 Bft) S-SW 213 0 min 0 W/m 7,3 C 1,1 C 32,2 km/h (5 Bft)
24.12.2017 09:03 7,6 C 98 % 1016,7 hPa 0,0 l/m 21,8 km/h (4 Bft) W-SW 244 0 min 0 W/m 7,3 C -0,4 C 38,6 km/h (6 Bft)
24.12.2017 09:06 7,5 C 98 % 1016,7 hPa 0,0 l/m 21,4 km/h (4 Bft) W-SW 241 0 min 0 W/m 7,2 C -0,4 C 35,4 km/h (5 Bft)
24.12.2017 09:09 7,5 C 98 % 1016,7 hPa 0,0 l/m 21,5 km/h (4 Bft) S 190 0 min 0 W/m 7,2 C -0,5 C 33,8 km/h (5 Bft)
24.12.2017 09:12 7,6 C 98 % 1016,7 hPa 0,0 l/m 24,1 km/h (4 Bft) W-SW 243 0 min 7 W/m 7,3 C -1,2 C 33,8 km/h (5 Bft)
24.12.2017 09:15 7,6 C 98 % 1016,7 hPa 0,0 l/m 23,5 km/h (4 Bft) SW 219 0 min 5 W/m 7,3 C -1,0 C 40,2 km/h (6 Bft)
24.12.2017 09:18 7,6 C 98 % 1016,7 hPa 0,0 l/m 24,6 km/h (4 Bft) SW 229 0 min 0 W/m 7,3 C -1,3 C 37,0 km/h (5 Bft)
24.12.2017 09:21 7,6 C 98 % 1016,7 hPa 0,0 l/m 23,3 km/h (4 Bft) SW 217 0 min 5 W/m 7,3 C -0,9 C 38,6 km/h (6 Bft)
24.12.2017 09:24 7,6 C 98 % 1016,7 hPa 0,0 l/m 22,2 km/h (4 Bft) SW 230 0 min 7 W/m 7,3 C -0,6 C 32,2 km/h (5 Bft)
24.12.2017 09:27 7,6 C 98 % 1016,7 hPa 0,2 l/m 19,5 km/h (3 Bft) W-NW 288 0 min 7 W/m 7,3 C 0,4 C 33,8 km/h (5 Bft)
24.12.2017 09:30 7,6 C 98 % 1016,7 hPa 0,0 l/m 19,4 km/h (3 Bft) W-SW 237 0 min 5 W/m 7,3 C 0,4 C 32,2 km/h (5 Bft)
24.12.2017 09:33 7,6 C 98 % 1016,7 hPa 0,0 l/m 20,9 km/h (4 Bft) S-SW 202 0 min 5 W/m 7,3 C -0,1 C 41,8 km/h (6 Bft)
24.12.2017 09:36 7,6 C 98 % 1016,7 hPa 0,0 l/m 20,3 km/h (4 Bft) SW 231 0 min 5 W/m 7,3 C 0,1 C 35,4 km/h (5 Bft)
24.12.2017 09:39 7,6 C 98 % 1016,7 hPa 0,0 l/m 19,4 km/h (3 Bft) W 259 0 min 7 W/m 7,3 C 0,4 C 29,0 km/h (5 Bft)
24.12.2017 09:42 7,6 C 98 % 1016,8 hPa 0,0 l/m 21,1 km/h (4 Bft) W-SW 249 0 min 11 W/m 7,3 C -0,2 C 32,2 km/h (5 Bft)
24.12.2017 09:45 7,6 C 98 % 1016,8 hPa 0,0 l/m 22,9 km/h (4 Bft) W-SW 238 0 min 9 W/m 7,3 C -0,8 C 32,2 km/h (5 Bft)
24.12.2017 09:48 7,6 C 98 % 1016,7 hPa 0,0 l/m 24,0 km/h (4 Bft) SW 225 0 min 7 W/m 7,3 C -1,1 C 33,8 km/h (5 Bft)
24.12.2017 09:51 7,6 C 98 % 1016,7 hPa 0,0 l/m 23,6 km/h (4 Bft) W-SW 251 0 min 7 W/m 7,3 C -1,0 C 38,6 km/h (6 Bft)
24.12.2017 09:54 7,6 C 98 % 1016,8 hPa 0,0 l/m 22,3 km/h (4 Bft) SW 231 0 min 11 W/m 7,3 C -0,6 C 37,0 km/h (5 Bft)
24.12.2017 09:57 7,6 C 98 % 1016,7 hPa 0,0 l/m 22,2 km/h (4 Bft) SW 231 0 min 9 W/m 7,3 C -0,6 C 33,8 km/h (5 Bft)
24.12.2017 10:00 7,6 C 98 % 1016,7 hPa 0,0 l/m 20,5 km/h (4 Bft) W-SW 253 0 min 9 W/m 7,3 C 0,0 C 33,8 km/h (5 Bft)
24.12.2017 10:03 7,6 C 98 % 1016,7 hPa 0,0 l/m 22,2 km/h (4 Bft) SW 221 0 min 12 W/m 7,3 C -0,6 C 41,8 km/h (6 Bft)
24.12.2017 10:06 7,6 C 98 % 1016,6 hPa 0,2 l/m 24,7 km/h (4 Bft) S-SW 193 0 min 11 W/m 7,3 C -1,3 C 51,5 km/h (7 Bft)
24.12.2017 10:09 7,6 C 98 % 1016,6 hPa 0,0 l/m 25,6 km/h (4 Bft) SW 229 0 min 11 W/m 7,3 C -1,6 C 43,5 km/h (6 Bft)
24.12.2017 10:12 7,7 C 98 % 1016,6 hPa 0,0 l/m 24,0 km/h (4 Bft) SW 222 0 min 12 W/m 7,4 C -1,0 C 38,6 km/h (6 Bft)
24.12.2017 10:15 7,7 C 98 % 1016,6 hPa 0,0 l/m 24,3 km/h (4 Bft) W-SW 255 0 min 11 W/m 7,4 C -1,1 C 33,8 km/h (5 Bft)
24.12.2017 10:18 7,6 C 98 % 1016,6 hPa 0,0 l/m 22,9 km/h (4 Bft) W-SW 252 0 min 14 W/m 7,3 C -0,8 C 38,6 km/h (6 Bft)
24.12.2017 10:21 7,7 C 98 % 1016,6 hPa 0,0 l/m 22,9 km/h (4 Bft) W-SW 247 0 min 21 W/m 7,4 C -0,7 C 43,5 km/h (6 Bft)
24.12.2017 10:24 7,7 C 98 % 1016,6 hPa 0,0 l/m 25,9 km/h (4 Bft) SW 226 0 min 12 W/m 7,4 C -1,5 C 40,2 km/h (6 Bft)
24.12.2017 10:27 7,7 C 98 % 1016,6 hPa 0,2 l/m 24,5 km/h (4 Bft) S 190 0 min 9 W/m 7,4 C -1,1 C 43,5 km/h (6 Bft)
24.12.2017 10:30 7,7 C 98 % 1016,6 hPa 0,0 l/m 23,9 km/h (4 Bft) SW 219 0 min 12 W/m 7,4 C -1,0 C 38,6 km/h (6 Bft)
24.12.2017 10:33 7,7 C 98 % 1016,6 hPa 0,0 l/m 24,1 km/h (4 Bft) SW 215 0 min 19 W/m 7,4 C -1,0 C 35,4 km/h (5 Bft)
24.12.2017 10:36 7,7 C 98 % 1016,6 hPa 0,0 l/m 22,9 km/h (4 Bft) SW 232 0 min 14 W/m 7,4 C -0,7 C 37,0 km/h (5 Bft)
24.12.2017 10:39 7,7 C 98 % 1016,5 hPa 0,0 l/m 23,6 km/h (4 Bft) SW 235 0 min 19 W/m 7,4 C -0,9 C 35,4 km/h (5 Bft)
24.12.2017 10:42 7,7 C 98 % 1016,5 hPa 0,0 l/m 24,6 km/h (4 Bft) W-SW 240 0 min 16 W/m 7,4 C -1,2 C 38,6 km/h (6 Bft)
24.12.2017 10:45 7,7 C 98 % 1016,5 hPa 0,2 l/m 22,3 km/h (4 Bft) W-SW 243 0 min 12 W/m 7,4 C -0,5 C 32,2 km/h (5 Bft)
24.12.2017 10:48 7,7 C 98 % 1016,5 hPa 0,0 l/m 22,8 km/h (4 Bft) SW 222 0 min 12 W/m 7,4 C -0,6 C 37,0 km/h (5 Bft)
24.12.2017 10:51 7,7 C 98 % 1016,5 hPa 0,0 l/m 23,6 km/h (4 Bft) W-SW 242 0 min 14 W/m 7,4 C -0,9 C 37,0 km/h (5 Bft)
24.12.2017 10:54 7,7 C 98 % 1016,6 hPa 0,0 l/m 26,7 km/h (4 Bft) W-SW 255 0 min 16 W/m 7,4 C -1,8 C 43,5 km/h (6 Bft)
24.12.2017 10:57 7,7 C 98 % 1016,6 hPa 0,0 l/m 21,3 km/h (4 Bft) SW 230 0 min 14 W/m 7,4 C -0,1 C 33,8 km/h (5 Bft)
24.12.2017 11:00 7,7 C 98 % 1016,5 hPa 0,0 l/m 22,2 km/h (4 Bft) S 188 0 min 18 W/m 7,4 C -0,4 C 38,6 km/h (6 Bft)
24.12.2017 11:03 7,7 C 98 % 1016,5 hPa 0,0 l/m 25,4 km/h (4 Bft) SW 225 0 min 18 W/m 7,4 C -1,4 C 38,6 km/h (6 Bft)
24.12.2017 11:06 7,7 C 98 % 1016,5 hPa 0,0 l/m 26,9 km/h (4 Bft) SW 225 0 min 18 W/m 7,4 C -1,8 C 45,1 km/h (6 Bft)
24.12.2017 11:09 7,7 C 98 % 1016,5 hPa 0,2 l/m 25,8 km/h (4 Bft) W-SW 244 0 min 14 W/m 7,4 C -1,5 C 43,5 km/h (6 Bft)
24.12.2017 11:12 7,7 C 98 % 1016,4 hPa 0,0 l/m 24,0 km/h (4 Bft) W-SW 247 0 min 16 W/m 7,4 C -1,0 C 40,2 km/h (6 Bft)
24.12.2017 11:15 7,7 C 98 % 1016,4 hPa 0,0 l/m 25,1 km/h (4 Bft) W-SW 247 0 min 18 W/m 7,4 C -1,3 C 37,0 km/h (5 Bft)
24.12.2017 11:18 7,8 C 98 % 1016,4 hPa 0,0 l/m 28,3 km/h (5 Bft) W-SW 240 0 min 18 W/m 7,5 C -2,0 C 46,7 km/h (6 Bft)
24.12.2017 11:21 7,8 C 98 % 1016,4 hPa 0,0 l/m 25,7 km/h (4 Bft) W-SW 240 0 min 23 W/m 7,5 C -1,3 C 37,0 km/h (5 Bft)
24.12.2017 11:24 7,8 C 98 % 1016,3 hPa 0,0 l/m 23,2 km/h (4 Bft) W-SW 242 0 min 28 W/m 7,5 C -0,6 C 38,6 km/h (6 Bft)
24.12.2017 11:27 7,8 C 98 % 1016,3 hPa 0,0 l/m 28,5 km/h (5 Bft) SW 214 0 min 25 W/m 7,5 C -2,1 C 37,0 km/h (5 Bft)
24.12.2017 11:30 7,8 C 98 % 1016,2 hPa 0,0 l/m 25,8 km/h (4 Bft) SW 236 0 min 26 W/m 7,5 C -1,4 C 41,8 km/h (6 Bft)
24.12.2017 11:33 7,8 C 98 % 1016,2 hPa 0,0 l/m 30,2 km/h (5 Bft) W-SW 239 0 min 21 W/m 7,5 C -2,5 C 43,5 km/h (6 Bft)
24.12.2017 11:36 7,8 C 98 % 1016,2 hPa 0,0 l/m 29,8 km/h (5 Bft) SW 234 0 min 19 W/m 7,5 C -2,4 C 43,5 km/h (6 Bft)
24.12.2017 11:39 7,8 C 98 % 1016,3 hPa 0,0 l/m 26,6 km/h (4 Bft) S-SW 209 0 min 21 W/m 7,5 C -1,6 C 38,6 km/h (6 Bft)
24.12.2017 11:42 7,8 C 98 % 1016,2 hPa 0,0 l/m 25,0 km/h (4 Bft) SW 236 0 min 21 W/m 7,5 C -1,1 C 37,0 km/h (5 Bft)
24.12.2017 11:45 7,8 C 98 % 1016,1 hPa 0,0 l/m 26,9 km/h (4 Bft) S-SW 199 0 min 19 W/m 7,5 C -1,7 C 40,2 km/h (6 Bft)
24.12.2017 11:48 7,8 C 98 % 1016,1 hPa 0,0 l/m 28,4 km/h (5 Bft) SW 218 0 min 19 W/m 7,5 C -2,1 C 45,1 km/h (6 Bft)
24.12.2017 11:51 7,8 C 98 % 1016,1 hPa 0,0 l/m 25,3 km/h (4 Bft) W-SW 244 0 min 21 W/m 7,5 C -1,2 C 35,4 km/h (5 Bft)
24.12.2017 11:54 7,8 C 98 % 1016,1 hPa 0,0 l/m 27,6 km/h (5 Bft) SW 221 0 min 25 W/m 7,5 C -1,9 C 38,6 km/h (6 Bft)
24.12.2017 11:57 7,8 C 98 % 1016,1 hPa 0,0 l/m 28,1 km/h (5 Bft) SW 229 0 min 25 W/m 7,5 C -2,0 C 43,5 km/h (6 Bft)
24.12.2017 12:00 7,8 C 98 % 1015,9 hPa 0,0 l/m 29,5 km/h (5 Bft) SW 223 0 min 28 W/m 7,5 C -2,3 C 41,8 km/h (6 Bft)
24.12.2017 12:03 7,8 C 98 % 1016,0 hPa 0,2 l/m 29,3 km/h (5 Bft) SW 230 0 min 26 W/m 7,5 C -2,3 C 45,1 km/h (6 Bft)
24.12.2017 12:06 7,8 C 98 % 1015,9 hPa 0,0 l/m 27,7 km/h (5 Bft) SW 233 0 min 26 W/m 7,5 C -1,9 C 45,1 km/h (6 Bft)
24.12.2017 12:09 7,8 C 98 % 1015,9 hPa 0,0 l/m 25,8 km/h (4 Bft) W-SW 253 0 min 16 W/m 7,5 C -1,4 C 37,0 km/h (5 Bft)
24.12.2017 12:12 7,8 C 98 % 1015,8 hPa 0,0 l/m 25,8 km/h (4 Bft) SW 225 0 min 19 W/m 7,5 C -1,4 C 43,5 km/h (6 Bft)
24.12.2017 12:15 7,8 C 98 % 1015,7 hPa 0,0 l/m 28,9 km/h (5 Bft) SW 227 0 min 33 W/m 7,5 C -2,2 C 40,2 km/h (6 Bft)
24.12.2017 12:18 7,8 C 98 % 1015,6 hPa 0,0 l/m 26,8 km/h (4 Bft) W-SW 248 0 min 37 W/m 7,5 C -1,6 C 41,8 km/h (6 Bft)
24.12.2017 12:21 7,8 C 98 % 1015,5 hPa 0,0 l/m 29,0 km/h (5 Bft) SW 229 0 min 39 W/m 7,5 C -2,2 C 41,8 km/h (6 Bft)
24.12.2017 12:24 7,8 C 98 % 1015,5 hPa 0,0 l/m 28,5 km/h (5 Bft) W-SW 238 0 min 28 W/m 7,5 C -2,1 C 41,8 km/h (6 Bft)
24.12.2017 12:27 7,8 C 98 % 1015,4 hPa 0,0 l/m 26,9 km/h (4 Bft) SW 226 0 min 23 W/m 7,5 C -1,7 C 40,2 km/h (6 Bft)
24.12.2017 12:30 7,8 C 98 % 1015,4 hPa 0,0 l/m 25,6 km/h (4 Bft) SW 236 0 min 26 W/m 7,5 C -1,3 C 41,8 km/h (6 Bft)
24.12.2017 12:33 7,8 C 98 % 1015,4 hPa 0,0 l/m 26,7 km/h (4 Bft) SW 221 0 min 23 W/m 7,5 C -1,6 C 41,8 km/h (6 Bft)
24.12.2017 12:36 7,8 C 98 % 1015,3 hPa 0,0 l/m 25,5 km/h (4 Bft) SW 225 0 min 19 W/m 7,5 C -1,3 C 37,0 km/h (5 Bft)
24.12.2017 12:39 7,8 C 98 % 1015,3 hPa 0,0 l/m 23,8 km/h (4 Bft) SW 232 0 min 19 W/m 7,5 C -0,8 C 37,0 km/h (5 Bft)
24.12.2017 12:42 7,8 C 98 % 1015,3 hPa 0,0 l/m 24,1 km/h (4 Bft) SW 226 0 min 18 W/m 7,5 C -0,9 C 38,6 km/h (6 Bft)
24.12.2017 12:45 7,8 C 98 % 1015,2 hPa 0,0 l/m 22,7 km/h (4 Bft) W-SW 250 0 min 19 W/m 7,5 C -0,5 C 33,8 km/h (5 Bft)
24.12.2017 12:48 7,8 C 98 % 1015,2 hPa 0,0 l/m 25,5 km/h (4 Bft) SW 221 0 min 18 W/m 7,5 C -1,3 C 35,4 km/h (5 Bft)
24.12.2017 12:51 7,8 C 98 % 1015,3 hPa 0,0 l/m 24,2 km/h (4 Bft) SW 219 0 min 28 W/m 7,5 C -0,9 C 41,8 km/h (6 Bft)
24.12.2017 12:54 7,8 C 98 % 1015,2 hPa 0,0 l/m 23,1 km/h (4 Bft) W-SW 249 0 min 26 W/m 7,5 C -0,6 C 40,2 km/h (6 Bft)
24.12.2017 12:57 7,8 C 98 % 1015,2 hPa 0,0 l/m 24,0 km/h (4 Bft) S-SW 202 0 min 21 W/m 7,5 C -0,9 C 38,6 km/h (6 Bft)
24.12.2017 13:00 7,8 C 98 % 1015,2 hPa 0,0 l/m 25,0 km/h (4 Bft) SW 222 0 min 21 W/m 7,5 C -1,1 C 40,2 km/h (6 Bft)
24.12.2017 13:03 7,8 C 98 % 1015,2 hPa 0,0 l/m 25,6 km/h (4 Bft) W 260 0 min 26 W/m 7,5 C -1,3 C 40,2 km/h (6 Bft)
24.12.2017 13:06 7,7 C 98 % 1015,2 hPa 0,0 l/m 25,6 km/h (4 Bft) W-SW 247 0 min 25 W/m 7,4 C -1,5 C 45,1 km/h (6 Bft)
24.12.2017 13:09 7,8 C 98 % 1015,2 hPa 0,0 l/m 26,1 km/h (4 Bft) SW 224 0 min 33 W/m 7,5 C -1,5 C 35,4 km/h (5 Bft)
24.12.2017 13:12 7,8 C 98 % 1015,2 hPa 0,0 l/m 23,4 km/h (4 Bft) W 266 0 min 30 W/m 7,5 C -0,7 C 33,8 km/h (5 Bft)
24.12.2017 13:15 7,8 C 98 % 1015,2 hPa 0,0 l/m 28,1 km/h (5 Bft) SW 236 0 min 28 W/m 7,5 C -2,0 C 38,6 km/h (6 Bft)
24.12.2017 13:18 7,8 C 98 % 1015,1 hPa 0,0 l/m 23,7 km/h (4 Bft) SW 234 0 min 26 W/m 7,5 C -0,8 C 35,4 km/h (5 Bft)
24.12.2017 13:21 7,8 C 98 % 1015,1 hPa 0,0 l/m 26,5 km/h (4 Bft) W 259 0 min 18 W/m 7,5 C -1,6 C 40,2 km/h (6 Bft)
24.12.2017 13:24 7,8 C 98 % 1015,0 hPa 0,0 l/m 24,6 km/h (4 Bft) W 271 0 min 19 W/m 7,5 C -1,0 C 40,2 km/h (6 Bft)
24.12.2017 13:27 7,8 C 98 % 1015,1 hPa 0,0 l/m 27,6 km/h (5 Bft) SW 215 0 min 19 W/m 7,5 C -1,9 C 43,5 km/h (6 Bft)
24.12.2017 13:30 7,8 C 98 % 1015,0 hPa 0,0 l/m 21,4 km/h (4 Bft) SW 232 0 min 16 W/m 7,5 C -0,0 C 33,8 km/h (5 Bft)
24.12.2017 13:33 7,8 C 98 % 1014,9 hPa 0,0 l/m 25,0 km/h (4 Bft) SW 227 0 min 19 W/m 7,5 C -1,1 C 35,4 km/h (5 Bft)
24.12.2017 13:36 7,8 C 98 % 1014,9 hPa 0,0 l/m 25,7 km/h (4 Bft) SW 235 0 min 21 W/m 7,5 C -1,3 C 37,0 km/h (5 Bft)
24.12.2017 13:39 7,8 C 98 % 1014,9 hPa 0,0 l/m 23,1 km/h (4 Bft) W-SW 244 0 min 19 W/m 7,5 C -0,6 C 35,4 km/h (5 Bft)
24.12.2017 13:42 7,8 C 98 % 1014,8 hPa 0,0 l/m 21,9 km/h (4 Bft) SW 236 0 min 18 W/m 7,5 C -0,2 C 30,6 km/h (5 Bft)
24.12.2017 13:45 7,8 C 98 % 1014,8 hPa 0,0 l/m 25,9 km/h (4 Bft) W-SW 252 0 min 18 W/m 7,5 C -1,4 C 40,2 km/h (6 Bft)
24.12.2017 13:48 7,9 C 98 % 1014,8 hPa 0,0 l/m 23,6 km/h (4 Bft) W-SW 242 0 min 18 W/m 7,6 C -0,6 C 38,6 km/h (6 Bft)
24.12.2017 13:51 7,9 C 98 % 1014,8 hPa 0,0 l/m 22,7 km/h (4 Bft) SW 223 0 min 23 W/m 7,6 C -0,3 C 35,4 km/h (5 Bft)
24.12.2017 13:54 7,9 C 98 % 1014,8 hPa 0,0 l/m 21,3 km/h (4 Bft) W 263 0 min 23 W/m 7,6 C 0,1 C 30,6 km/h (5 Bft)
24.12.2017 13:57 7,9 C 98 % 1014,7 hPa 0,0 l/m 23,2 km/h (4 Bft) SW 236 0 min 23 W/m 7,6 C -0,5 C 38,6 km/h (6 Bft)
24.12.2017 14:00 7,9 C 98 % 1014,7 hPa 0,0 l/m 22,5 km/h (4 Bft) SW 225 0 min 19 W/m 7,6 C -0,3 C 35,4 km/h (5 Bft)
24.12.2017 14:03 7,9 C 98 % 1014,6 hPa 0,0 l/m 24,9 km/h (4 Bft) SW 219 0 min 21 W/m 7,6 C -1,0 C 38,6 km/h (6 Bft)
24.12.2017 14:06 7,9 C 98 % 1014,5 hPa 0,0 l/m 24,3 km/h (4 Bft) W-SW 242 0 min 19 W/m 7,6 C -0,8 C 41,8 km/h (6 Bft)
24.12.2017 14:09 7,9 C 98 % 1014,5 hPa 0,0 l/m 28,3 km/h (5 Bft) W-SW 245 0 min 19 W/m 7,6 C -1,9 C 38,6 km/h (6 Bft)
24.12.2017 14:12 7,9 C 98 % 1014,6 hPa 0,0 l/m 26,3 km/h (4 Bft) W-SW 238 0 min 18 W/m 7,6 C -1,4 C 38,6 km/h (6 Bft)
24.12.2017 14:15 7,9 C 98 % 1014,5 hPa 0,0 l/m 26,5 km/h (4 Bft) SW 218 0 min 18 W/m 7,6 C -1,4 C 45,1 km/h (6 Bft)
24.12.2017 14:18 8,0 C 98 % 1014,5 hPa 0,0 l/m 23,7 km/h (4 Bft) W-SW 244 0 min 16 W/m 7,7 C -0,5 C 35,4 km/h (5 Bft)
24.12.2017 14:21 7,9 C 98 % 1014,5 hPa 0,0 l/m 22,3 km/h (4 Bft) W-SW 247 0 min 14 W/m 7,6 C -0,2 C 38,6 km/h (6 Bft)
24.12.2017 14:24 8,0 C 98 % 1014,4 hPa 0,0 l/m 23,2 km/h (4 Bft) W-SW 239 0 min 19 W/m 7,7 C -0,3 C 37,0 km/h (5 Bft)
24.12.2017 14:27 8,0 C 97 % 1014,4 hPa 0,0 l/m 24,3 km/h (4 Bft) SW 229 0 min 14 W/m 7,6 C -0,7 C 35,4 km/h (5 Bft)
24.12.2017 14:30 8,0 C 98 % 1014,4 hPa 0,0 l/m 25,5 km/h (4 Bft) SW 217 0 min 12 W/m 7,7 C -1,0 C 41,8 km/h (6 Bft)
24.12.2017 14:33 8,0 C 97 % 1014,3 hPa 0,0 l/m 21,9 km/h (4 Bft) W-SW 242 0 min 9 W/m 7,6 C 0,1 C 33,8 km/h (5 Bft)
24.12.2017 14:36 8,0 C 97 % 1014,3 hPa 0,0 l/m 23,1 km/h (4 Bft) S-SW 206 0 min 12 W/m 7,6 C -0,3 C 33,8 km/h (5 Bft)
24.12.2017 14:39 8,0 C 97 % 1014,3 hPa 0,0 l/m 24,5 km/h (4 Bft) S-SW 211 0 min 12 W/m 7,6 C -0,7 C 38,6 km/h (6 Bft)
24.12.2017 14:42 8,1 C 97 % 1014,3 hPa 0,0 l/m 24,6 km/h (4 Bft) W-SW 244 0 min 12 W/m 7,7 C -0,6 C 35,4 km/h (5 Bft)
24.12.2017 14:45 8,1 C 97 % 1014,2 hPa 0,0 l/m 25,7 km/h (4 Bft) S-SW 201 0 min 12 W/m 7,7 C -0,9 C 40,2 km/h (6 Bft)
24.12.2017 14:48 8,1 C 97 % 1014,1 hPa 0,0 l/m 24,1 km/h (4 Bft) SW 223 0 min 14 W/m 7,7 C -0,5 C 37,0 km/h (5 Bft)
24.12.2017 14:51 8,1 C 97 % 1014,1 hPa 0,0 l/m 21,2 km/h (4 Bft) SW 226 0 min 12 W/m 7,7 C 0,4 C 32,2 km/h (5 Bft)
24.12.2017 14:54 8,1 C 97 % 1014,0 hPa 0,0 l/m 25,9 km/h (4 Bft) W-SW 242 0 min 11 W/m 7,7 C -1,0 C 38,6 km/h (6 Bft)
24.12.2017 14:57 8,2 C 97 % 1014,1 hPa 0,0 l/m 24,6 km/h (4 Bft) SW 234 0 min 12 W/m 7,8 C -0,5 C 37,0 km/h (5 Bft)
24.12.2017 15:00 8,2 C 97 % 1014,0 hPa 0,0 l/m 25,1 km/h (4 Bft) SW 230 0 min 14 W/m 7,8 C -0,6 C 45,1 km/h (6 Bft)
24.12.2017 15:03 8,2 C 97 % 1014,1 hPa 0,0 l/m 25,9 km/h (4 Bft) W-SW 251 0 min 11 W/m 7,8 C -0,9 C 35,4 km/h (5 Bft)
24.12.2017 15:06 8,2 C 97 % 1014,0 hPa 0,0 l/m 27,2 km/h (5 Bft) SW 221 0 min 12 W/m 7,8 C -1,2 C 40,2 km/h (6 Bft)
24.12.2017 15:09 8,2 C 97 % 1014,0 hPa 0,0 l/m 27,1 km/h (5 Bft) W-SW 238 0 min 12 W/m 7,8 C -1,2 C 48,3 km/h (6 Bft)
24.12.2017 15:12 8,2 C 97 % 1014,0 hPa 0,0 l/m 24,9 km/h (4 Bft) SW 233 0 min 11 W/m 7,8 C -0,6 C 43,5 km/h (6 Bft)
24.12.2017 15:15 8,3 C 97 % 1014,0 hPa 0,0 l/m 27,6 km/h (5 Bft) W-SW 237 0 min 12 W/m 7,9 C -1,2 C 41,8 km/h (6 Bft)
24.12.2017 15:18 8,3 C 97 % 1014,0 hPa 0,0 l/m 25,8 km/h (4 Bft) S-SW 207 0 min 11 W/m 7,9 C -0,7 C 41,8 km/h (6 Bft)
24.12.2017 15:21 8,3 C 97 % 1014,0 hPa 0,0 l/m 23,4 km/h (4 Bft) W-SW 242 0 min 9 W/m 7,9 C -0,0 C 32,2 km/h (5 Bft)
24.12.2017 15:24 8,3 C 97 % 1014,0 hPa 0,0 l/m 23,7 km/h (4 Bft) S-SW 194 0 min 11 W/m 7,9 C -0,1 C 37,0 km/h (5 Bft)
24.12.2017 15:27 8,3 C 97 % 1014,0 hPa 0,0 l/m 20,7 km/h (4 Bft) SW 236 0 min 9 W/m 7,9 C 0,9 C 32,2 km/h (5 Bft)
24.12.2017 15:30 8,3 C 97 % 1014,0 hPa 0,0 l/m 22,0 km/h (4 Bft) SW 221 0 min 9 W/m 7,9 C 0,4 C 32,2 km/h (5 Bft)
24.12.2017 15:33 8,3 C 97 % 1014,0 hPa 0,0 l/m 22,5 km/h (4 Bft) SW 234 0 min 11 W/m 7,9 C 0,3 C 35,4 km/h (5 Bft)
24.12.2017 15:36 8,3 C 97 % 1013,9 hPa 0,0 l/m 22,6 km/h (4 Bft) SW 231 0 min 11 W/m 7,9 C 0,2 C 32,2 km/h (5 Bft)
24.12.2017 15:39 8,3 C 97 % 1013,9 hPa 0,0 l/m 24,5 km/h (4 Bft) S-SW 212 0 min 9 W/m 7,9 C -0,3 C 38,6 km/h (6 Bft)
24.12.2017 15:42 8,3 C 97 % 1013,9 hPa 0,0 l/m 25,2 km/h (4 Bft) SW 225 0 min 7 W/m 7,9 C -0,5 C 37,0 km/h (5 Bft)
24.12.2017 15:45 8,3 C 97 % 1014,0 hPa 0,0 l/m 21,8 km/h (4 Bft) W 268 0 min 7 W/m 7,9 C 0,5 C 37,0 km/h (5 Bft)
24.12.2017 15:48 8,3 C 97 % 1014,0 hPa 0,0 l/m 22,7 km/h (4 Bft) SW 215 0 min 5 W/m 7,9 C 0,2 C 33,8 km/h (5 Bft)
24.12.2017 15:51 8,3 C 97 % 1013,9 hPa 0,0 l/m 25,4 km/h (4 Bft) W-SW 242 0 min 5 W/m 7,9 C -0,6 C 37,0 km/h (5 Bft)
24.12.2017 15:54 8,3 C 97 % 1013,9 hPa 0,0 l/m 22,6 km/h (4 Bft) S-SW 208 0 min 0 W/m 7,9 C 0,2 C 33,8 km/h (5 Bft)
24.12.2017 15:57 8,3 C 97 % 1013,9 hPa 0,0 l/m 22,2 km/h (4 Bft) SW 232 0 min 0 W/m 7,9 C 0,4 C 37,0 km/h (5 Bft)
24.12.2017 16:00 8,3 C 97 % 1013,9 hPa 0,0 l/m 19,4 km/h (3 Bft) W-SW 252 0 min 0 W/m 7,9 C 1,3 C 33,8 km/h (5 Bft)
24.12.2017 16:03 8,3 C 96 % 1013,8 hPa 0,0 l/m 20,7 km/h (4 Bft) S-SW 210 0 min 0 W/m 7,7 C 0,9 C 38,6 km/h (6 Bft)
24.12.2017 16:06 8,3 C 96 % 1013,9 hPa 0,0 l/m 24,1 km/h (4 Bft) SW 215 0 min 0 W/m 7,7 C -0,2 C 37,0 km/h (5 Bft)
24.12.2017 16:09 8,3 C 96 % 1013,8 hPa 0,0 l/m 21,9 km/h (4 Bft) SW 231 0 min 0 W/m 7,7 C 0,5 C 33,8 km/h (5 Bft)
24.12.2017 16:12 8,3 C 96 % 1013,7 hPa 0,0 l/m 22,2 km/h (4 Bft) S-SW 207 0 min 0 W/m 7,7 C 0,4 C 32,2 km/h (5 Bft)
24.12.2017 16:15 8,3 C 96 % 1013,8 hPa 0,0 l/m 24,0 km/h (4 Bft) S-SW 200 0 min 0 W/m 7,7 C -0,2 C 38,6 km/h (6 Bft)
24.12.2017 16:18 8,3 C 96 % 1013,8 hPa 0,0 l/m 26,3 km/h (4 Bft) W-SW 245 0 min 0 W/m 7,7 C -0,8 C 45,1 km/h (6 Bft)
24.12.2017 16:21 8,4 C 96 % 1013,7 hPa 0,0 l/m 23,8 km/h (4 Bft) W-SW 240 0 min 0 W/m 7,8 C 0,0 C 33,8 km/h (5 Bft)
24.12.2017 16:24 8,4 C 96 % 1013,7 hPa 0,0 l/m 25,6 km/h (4 Bft) W-SW 237 0 min 0 W/m 7,8 C -0,5 C 38,6 km/h (6 Bft)
24.12.2017 16:27 8,4 C 96 % 1013,7 hPa 0,0 l/m 24,5 km/h (4 Bft) W-SW 247 0 min 0 W/m 7,8 C -0,2 C 37,0 km/h (5 Bft)
24.12.2017 16:30 8,4 C 96 % 1013,7 hPa 0,0 l/m 22,8 km/h (4 Bft) SW 226 0 min 0 W/m 7,8 C 0,3 C 37,0 km/h (5 Bft)
24.12.2017 16:33 8,4 C 96 % 1013,7 hPa 0,0 l/m 26,3 km/h (4 Bft) S-SW 200 0 min 0 W/m 7,8 C -0,7 C 41,8 km/h (6 Bft)
24.12.2017 16:36 8,4 C 96 % 1013,7 hPa 0,0 l/m 23,7 km/h (4 Bft) SW 225 0 min 0 W/m 7,8 C 0,0 C 41,8 km/h (6 Bft)
24.12.2017 16:39 8,4 C 96 % 1013,6 hPa 0,0 l/m 22,6 km/h (4 Bft) SW 224 0 min 0 W/m 7,8 C 0,4 C 33,8 km/h (5 Bft)
24.12.2017 16:42 8,4 C 96 % 1013,5 hPa 0,0 l/m 23,4 km/h (4 Bft) W-SW 246 0 min 0 W/m 7,8 C 0,1 C 37,0 km/h (5 Bft)
24.12.2017 16:45 8,4 C 96 % 1013,5 hPa 0,0 l/m 24,3 km/h (4 Bft) SW 229 0 min 0 W/m 7,8 C -0,1 C 35,4 km/h (5 Bft)
24.12.2017 16:48 8,4 C 96 % 1013,4 hPa 0,0 l/m 24,1 km/h (4 Bft) W-SW 244 0 min 0 W/m 7,8 C -0,1 C 40,2 km/h (6 Bft)
24.12.2017 16:51 8,4 C 96 % 1013,6 hPa 0,0 l/m 22,8 km/h (4 Bft) S 187 0 min 0 W/m 7,8 C 0,3 C 35,4 km/h (5 Bft)
24.12.2017 16:54 8,4 C 95 % 1013,5 hPa 0,0 l/m 23,9 km/h (4 Bft) W-SW 250 0 min 0 W/m 7,6 C -0,0 C 35,4 km/h (5 Bft)
24.12.2017 16:57 8,4 C 95 % 1013,5 hPa 0,0 l/m 25,6 km/h (4 Bft) SW 231 0 min 0 W/m 7,6 C -0,5 C 38,6 km/h (6 Bft)
24.12.2017 17:00 8,5 C 95 % 1013,4 hPa 0,0 l/m 24,5 km/h (4 Bft) SW 229 0 min 0 W/m 7,7 C -0,1 C 41,8 km/h (6 Bft)
24.12.2017 17:03 8,5 C 95 % 1013,5 hPa 0,0 l/m 25,6 km/h (4 Bft) SW 234 0 min 0 W/m 7,7 C -0,4 C 37,0 km/h (5 Bft)
24.12.2017 17:06 8,5 C 95 % 1013,4 hPa 0,0 l/m 24,1 km/h (4 Bft) W-SW 256 0 min 0 W/m 7,7 C 0,1 C 35,4 km/h (5 Bft)
24.12.2017 17:09 8,5 C 95 % 1013,3 hPa 0,0 l/m 27,8 km/h (5 Bft) W-SW 248 0 min 0 W/m 7,7 C -0,9 C 45,1 km/h (6 Bft)
24.12.2017 17:12 8,5 C 95 % 1013,3 hPa 0,0 l/m 24,1 km/h (4 Bft) W-SW 250 0 min 0 W/m 7,7 C 0,1 C 38,6 km/h (6 Bft)
24.12.2017 17:15 8,6 C 95 % 1013,3 hPa 0,0 l/m 22,6 km/h (4 Bft) SW 234 0 min 0 W/m 7,8 C 0,6 C 33,8 km/h (5 Bft)
24.12.2017 17:18 8,6 C 95 % 1013,4 hPa 0,0 l/m 20,6 km/h (4 Bft) W-SW 238 0 min 0 W/m 7,8 C 1,3 C 30,6 km/h (5 Bft)
24.12.2017 17:21 8,6 C 95 % 1013,5 hPa 0,0 l/m 16,7 km/h (3 Bft) SW 215 0 min 0 W/m 7,8 C 2,7 C 30,6 km/h (5 Bft)
24.12.2017 17:24 8,6 C 95 % 1013,4 hPa 0,0 l/m 18,9 km/h (3 Bft) W-NW 288 0 min 0 W/m 7,8 C 1,9 C 32,2 km/h (5 Bft)
24.12.2017 17:27 8,6 C 94 % 1013,4 hPa 0,0 l/m 21,5 km/h (4 Bft) SW 233 0 min 0 W/m 7,7 C 1,0 C 38,6 km/h (6 Bft)
24.12.2017 17:30 8,6 C 95 % 1013,3 hPa 0,0 l/m 21,7 km/h (4 Bft) W-SW 237 0 min 0 W/m 7,8 C 0,9 C 30,6 km/h (5 Bft)
24.12.2017 17:33 8,6 C 95 % 1013,2 hPa 0,0 l/m 25,2 km/h (4 Bft) SW 233 0 min 0 W/m 7,8 C -0,1 C 35,4 km/h (5 Bft)
24.12.2017 17:36 8,6 C 94 % 1013,2 hPa 0,0 l/m 26,4 km/h (4 Bft) W 281 0 min 0 W/m 7,7 C -0,4 C 37,0 km/h (5 Bft)
24.12.2017 17:39 8,6 C 94 % 1013,2 hPa 0,0 l/m 24,9 km/h (4 Bft) W 273 0 min 0 W/m 7,7 C -0,0 C 40,2 km/h (6 Bft)
24.12.2017 17:42 8,6 C 94 % 1013,2 hPa 0,0 l/m 21,9 km/h (4 Bft) SW 217 0 min 0 W/m 7,7 C 0,9 C 33,8 km/h (5 Bft)
24.12.2017 17:45 8,6 C 94 % 1013,1 hPa 0,0 l/m 25,8 km/h (4 Bft) N 360 0 min 0 W/m 7,7 C -0,3 C 45,1 km/h (6 Bft)
24.12.2017 17:48 8,6 C 94 % 1013,2 hPa 0,0 l/m 25,8 km/h (4 Bft) W-SW 247 0 min 0 W/m 7,7 C -0,3 C 35,4 km/h (5 Bft)
24.12.2017 17:51 8,6 C 94 % 1013,1 hPa 0,0 l/m 21,0 km/h (4 Bft) W-SW 248 0 min 0 W/m 7,7 C 1,1 C 35,4 km/h (5 Bft)
24.12.2017 17:54 8,6 C 94 % 1013,1 hPa 0,0 l/m 25,3 km/h (4 Bft) SW 216 0 min 0 W/m 7,7 C -0,1 C 41,8 km/h (6 Bft)
24.12.2017 17:57 8,6 C 94 % 1013,1 hPa 0,0 l/m 22,1 km/h (4 Bft) W-SW 250 0 min 0 W/m 7,7 C 0,8 C 35,4 km/h (5 Bft)
24.12.2017 18:00 8,6 C 94 % 1013,1 hPa 0,0 l/m 24,1 km/h (4 Bft) W-SW 243 0 min 0 W/m 7,7 C 0,2 C 33,8 km/h (5 Bft)
24.12.2017 18:03 8,6 C 94 % 1013,0 hPa 0,0 l/m 21,0 km/h (4 Bft) SW 232 0 min 0 W/m 7,7 C 1,1 C 37,0 km/h (5 Bft)
24.12.2017 18:06 8,6 C 94 % 1013,1 hPa 0,0 l/m 23,3 km/h (4 Bft) W-SW 242 0 min 0 W/m 7,7 C 0,4 C 33,8 km/h (5 Bft)
24.12.2017 18:09 8,6 C 94 % 1013,1 hPa 0,0 l/m 24,4 km/h (4 Bft) W-SW 250 0 min 0 W/m 7,7 C 0,1 C 40,2 km/h (6 Bft)
24.12.2017 18:12 8,6 C 94 % 1013,1 hPa 0,0 l/m 24,8 km/h (4 Bft) SW 231 0 min 0 W/m 7,7 C -0,0 C 37,0 km/h (5 Bft)
24.12.2017 18:15 8,7 C 94 % 1013,1 hPa 0,0 l/m 24,0 km/h (4 Bft) S 180 0 min 0 W/m 7,8 C 0,4 C 46,7 km/h (6 Bft)
24.12.2017 18:18 8,7 C 94 % 1013,1 hPa 0,0 l/m 20,4 km/h (4 Bft) W-SW 247 0 min 0 W/m 7,8 C 1,5 C 38,6 km/h (6 Bft)
24.12.2017 18:21 8,7 C 94 % 1013,1 hPa 0,0 l/m 25,3 km/h (4 Bft) W 267 0 min 0 W/m 7,8 C -0,0 C 35,4 km/h (5 Bft)
24.12.2017 18:24 8,8 C 94 % 1013,1 hPa 0,0 l/m 22,7 km/h (4 Bft) S-SW 207 0 min 0 W/m 7,9 C 0,9 C 38,6 km/h (6 Bft)
24.12.2017 18:27 8,7 C 94 % 1013,1 hPa 0,0 l/m 20,7 km/h (4 Bft) W-SW 250 0 min 0 W/m 7,8 C 1,4 C 32,2 km/h (5 Bft)
24.12.2017 18:30 8,7 C 93 % 1013,2 hPa 0,0 l/m 22,2 km/h (4 Bft) SW 227 0 min 0 W/m 7,6 C 0,9 C 35,4 km/h (5 Bft)
24.12.2017 18:33 8,7 C 93 % 1013,2 hPa 0,0 l/m 21,3 km/h (4 Bft) W-SW 239 0 min 0 W/m 7,6 C 1,2 C 32,2 km/h (5 Bft)
24.12.2017 18:36 8,6 C 93 % 1013,2 hPa 0,0 l/m 25,1 km/h (4 Bft) SW 229 0 min 0 W/m 7,5 C -0,1 C 35,4 km/h (5 Bft)
24.12.2017 18:39 8,6 C 93 % 1013,2 hPa 0,0 l/m 22,6 km/h (4 Bft) SW 232 0 min 0 W/m 7,5 C 0,6 C 35,4 km/h (5 Bft)
24.12.2017 18:42 8,6 C 93 % 1013,1 hPa 0,0 l/m 18,4 km/h (3 Bft) W-NW 282 0 min 0 W/m 7,5 C 2,1 C 32,2 km/h (5 Bft)
24.12.2017 18:45 8,6 C 94 % 1013,1 hPa 0,0 l/m 23,3 km/h (4 Bft) SW 217 0 min 0 W/m 7,7 C 0,4 C 38,6 km/h (6 Bft)
24.12.2017 18:48 8,6 C 94 % 1013,2 hPa 0,0 l/m 20,8 km/h (4 Bft) W-SW 249 0 min 0 W/m 7,7 C 1,2 C 37,0 km/h (5 Bft)
24.12.2017 18:51 8,6 C 94 % 1013,1 hPa 0,0 l/m 20,0 km/h (4 Bft) S-SW 206 0 min 0 W/m 7,7 C 1,5 C 29,0 km/h (5 Bft)
24.12.2017 18:54 8,6 C 94 % 1013,2 hPa 0,0 l/m 24,2 km/h (4 Bft) W-SW 239 0 min 0 W/m 7,7 C 0,2 C 37,0 km/h (5 Bft)
24.12.2017 18:57 8,7 C 94 % 1013,1 hPa 0,0 l/m 24,1 km/h (4 Bft) SW 228 0 min 0 W/m 7,8 C 0,3 C 40,2 km/h (6 Bft)
24.12.2017 19:00 8,7 C 94 % 1013,2 hPa 0,0 l/m 22,3 km/h (4 Bft) S-SW 211 0 min 0 W/m 7,8 C 0,9 C 32,2 km/h (5 Bft)
24.12.2017 19:03 8,7 C 94 % 1013,1 hPa 0,0 l/m 21,4 km/h (4 Bft) W-SW 249 0 min 0 W/m 7,8 C 1,1 C 40,2 km/h (6 Bft)
24.12.2017 19:06 8,7 C 93 % 1013,1 hPa 0,0 l/m 21,1 km/h (4 Bft) SW 223 0 min 0 W/m 7,6 C 1,2 C 33,8 km/h (5 Bft)
24.12.2017 19:09 8,7 C 94 % 1013,1 hPa 0,0 l/m 20,7 km/h (4 Bft) W-SW 249 0 min 0 W/m 7,8 C 1,4 C 32,2 km/h (5 Bft)
24.12.2017 19:12 8,7 C 94 % 1013,1 hPa 0,0 l/m 23,9 km/h (4 Bft) SW 222 0 min 0 W/m 7,8 C 0,4 C 33,8 km/h (5 Bft)
24.12.2017 19:15 8,7 C 93 % 1013,0 hPa 0,0 l/m 23,3 km/h (4 Bft) W-SW 252 0 min 0 W/m 7,6 C 0,6 C 33,8 km/h (5 Bft)
24.12.2017 19:18 8,7 C 93 % 1013,0 hPa 0,0 l/m 25,1 km/h (4 Bft) S-SW 206 0 min 0 W/m 7,6 C 0,0 C 43,5 km/h (6 Bft)
24.12.2017 19:21 8,7 C 94 % 1012,9 hPa 0,0 l/m 20,9 km/h (4 Bft) SW 227 0 min 0 W/m 7,8 C 1,3 C 41,8 km/h (6 Bft)
24.12.2017 19:24 8,7 C 94 % 1012,9 hPa 0,0 l/m 24,6 km/h (4 Bft) SW 226 0 min 0 W/m 7,8 C 0,2 C 38,6 km/h (6 Bft)
24.12.2017 19:27 8,7 C 94 % 1012,9 hPa 0,0 l/m 22,9 km/h (4 Bft) SW 219 0 min 0 W/m 7,8 C 0,7 C 30,6 km/h (5 Bft)
24.12.2017 19:30 8,7 C 93 % 1012,9 hPa 0,0 l/m 25,5 km/h (4 Bft) SW 234 0 min 0 W/m 7,6 C -0,1 C 40,2 km/h (6 Bft)
24.12.2017 19:33 8,7 C 94 % 1012,8 hPa 0,0 l/m 24,5 km/h (4 Bft) W-SW 243 0 min 0 W/m 7,8 C 0,2 C 37,0 km/h (5 Bft)
24.12.2017 19:36 8,7 C 94 % 1012,9 hPa 0,0 l/m 23,3 km/h (4 Bft) S-SW 207 0 min 0 W/m 7,8 C 0,6 C 43,5 km/h (6 Bft)
24.12.2017 19:39 8,7 C 94 % 1013,0 hPa 0,0 l/m 21,6 km/h (4 Bft) SW 219 0 min 0 W/m 7,8 C 1,1 C 33,8 km/h (5 Bft)
24.12.2017 19:42 8,7 C 94 % 1013,1 hPa 0,0 l/m 23,4 km/h (4 Bft) SW 220 0 min 0 W/m 7,8 C 0,5 C 37,0 km/h (5 Bft)
24.12.2017 19:45 8,7 C 93 % 1013,0 hPa 0,0 l/m 23,4 km/h (4 Bft) W-SW 252 0 min 0 W/m 7,6 C 0,5 C 35,4 km/h (5 Bft)
24.12.2017 19:48 8,7 C 93 % 1013,0 hPa 0,0 l/m 23,0 km/h (4 Bft) S-SW 194 0 min 0 W/m 7,6 C 0,6 C 37,0 km/h (5 Bft)
24.12.2017 19:51 8,7 C 93 % 1012,9 hPa 0,0 l/m 22,9 km/h (4 Bft) W-NW 288 0 min 0 W/m 7,6 C 0,7 C 35,4 km/h (5 Bft)
24.12.2017 19:54 8,7 C 93 % 1012,9 hPa 0,0 l/m 22,4 km/h (4 Bft) W 269 0 min 0 W/m 7,6 C 0,8 C 32,2 km/h (5 Bft)
24.12.2017 19:57 8,7 C 93 % 1012,9 hPa 0,0 l/m 20,3 km/h (4 Bft) SW 231 0 min 0 W/m 7,6 C 1,5 C 30,6 km/h (5 Bft)
24.12.2017 20:00 8,7 C 93 % 1012,8 hPa 0,0 l/m 23,6 km/h (4 Bft) S-SW 194 0 min 0 W/m 7,6 C 0,5 C 35,4 km/h (5 Bft)
24.12.2017 20:03 8,7 C 93 % 1012,9 hPa 0,0 l/m 27,1 km/h (5 Bft) S-SW 212 0 min 0 W/m 7,6 C -0,5 C 43,5 km/h (6 Bft)
24.12.2017 20:06 8,7 C 93 % 1012,9 hPa 0,0 l/m 24,5 km/h (4 Bft) S-SW 204 0 min 0 W/m 7,6 C 0,2 C 41,8 km/h (6 Bft)
24.12.2017 20:09 8,7 C 93 % 1012,8 hPa 0,0 l/m 23,4 km/h (4 Bft) W 267 0 min 0 W/m 7,6 C 0,5 C 35,4 km/h (5 Bft)
24.12.2017 20:12 8,7 C 93 % 1012,9 hPa 0,0 l/m 22,7 km/h (4 Bft) S-SW 206 0 min 0 W/m 7,6 C 0,7 C 38,6 km/h (6 Bft)
24.12.2017 20:15 8,7 C 93 % 1012,9 hPa 0,0 l/m 24,4 km/h (4 Bft) W-SW 248 0 min 0 W/m 7,6 C 0,2 C 33,8 km/h (5 Bft)
24.12.2017 20:18 8,7 C 93 % 1012,9 hPa 0,0 l/m 23,7 km/h (4 Bft) W-SW 240 0 min 0 W/m 7,6 C 0,4 C 41,8 km/h (6 Bft)
24.12.2017 20:21 8,7 C 93 % 1012,9 hPa 0,0 l/m 26,6 km/h (4 Bft) W-SW 251 0 min 0 W/m 7,6 C -0,4 C 38,6 km/h (6 Bft)
24.12.2017 20:24 8,7 C 93 % 1012,9 hPa 0,0 l/m 24,1 km/h (4 Bft) SW 234 0 min 0 W/m 7,6 C 0,3 C 33,8 km/h (5 Bft)
24.12.2017 20:27 8,7 C 93 % 1012,9 hPa 0,0 l/m 28,9 km/h (5 Bft) SW 229 0 min 0 W/m 7,6 C -0,9 C 43,5 km/h (6 Bft)
24.12.2017 20:30 8,7 C 93 % 1013,0 hPa 0,0 l/m 28,1 km/h (5 Bft) SW 226 0 min 0 W/m 7,6 C -0,7 C 40,2 km/h (6 Bft)
24.12.2017 20:33 8,7 C 93 % 1013,0 hPa 0,0 l/m 24,0 km/h (4 Bft) W-SW 244 0 min 0 W/m 7,6 C 0,4 C 37,0 km/h (5 Bft)
24.12.2017 20:36 8,7 C 93 % 1013,0 hPa 0,0 l/m 23,3 km/h (4 Bft) W-SW 241 0 min 0 W/m 7,6 C 0,6 C 38,6 km/h (6 Bft)
24.12.2017 20:39 8,7 C 93 % 1013,0 hPa 0,0 l/m 23,2 km/h (4 Bft) SW 217 0 min 0 W/m 7,6 C 0,6 C 35,4 km/h (5 Bft)
24.12.2017 20:42 8,7 C 93 % 1012,9 hPa 0,0 l/m 21,2 km/h (4 Bft) W-SW 254 0 min 0 W/m 7,6 C 1,2 C 35,4 km/h (5 Bft)
24.12.2017 20:45 8,7 C 93 % 1013,0 hPa 0,0 l/m 23,4 km/h (4 Bft) SW 221 0 min 0 W/m 7,6 C 0,5 C 41,8 km/h (6 Bft)
24.12.2017 20:48 8,7 C 93 % 1013,1 hPa 0,0 l/m 24,6 km/h (4 Bft) S-SW 202 0 min 0 W/m 7,6 C 0,2 C 41,8 km/h (6 Bft)
24.12.2017 20:51 8,7 C 92 % 1013,1 hPa 0,0 l/m 22,6 km/h (4 Bft) SW 221 0 min 0 W/m 7,5 C 0,8 C 37,0 km/h (5 Bft)
24.12.2017 20:54 8,7 C 92 % 1013,1 hPa 0,0 l/m 22,6 km/h (4 Bft) W 260 0 min 0 W/m 7,5 C 0,8 C 38,6 km/h (6 Bft)
24.12.2017 20:57 8,7 C 92 % 1013,1 hPa 0,0 l/m 26,6 km/h (4 Bft) W-SW 241 0 min 0 W/m 7,5 C -0,4 C 40,2 km/h (6 Bft)
24.12.2017 21:00 8,7 C 92 % 1013,1 hPa 0,0 l/m 23,2 km/h (4 Bft) SW 223 0 min 0 W/m 7,5 C 0,6 C 38,6 km/h (6 Bft)
24.12.2017 21:03 8,7 C 92 % 1013,1 hPa 0,0 l/m 22,4 km/h (4 Bft) SW 217 0 min 0 W/m 7,5 C 0,8 C 35,4 km/h (5 Bft)
24.12.2017 21:06 8,6 C 92 % 1013,2 hPa 0,0 l/m 21,2 km/h (4 Bft) SW 228 0 min 0 W/m 7,4 C 1,1 C 41,8 km/h (6 Bft)
24.12.2017 21:09 8,6 C 92 % 1013,1 hPa 0,0 l/m 22,7 km/h (4 Bft) W-SW 246 0 min 0 W/m 7,4 C 0,6 C 38,6 km/h (6 Bft)
24.12.2017 21:12 8,6 C 92 % 1013,0 hPa 0,0 l/m 22,4 km/h (4 Bft) S 178 0 min 0 W/m 7,4 C 0,7 C 32,2 km/h (5 Bft)
24.12.2017 21:15 8,5 C 93 % 1013,0 hPa 0,0 l/m 22,2 km/h (4 Bft) SW 229 0 min 0 W/m 7,4 C 0,6 C 38,6 km/h (6 Bft)
24.12.2017 21:18 8,5 C 93 % 1013,1 hPa 0,0 l/m 24,6 km/h (4 Bft) W 263 0 min 0 W/m 7,4 C -0,1 C 35,4 km/h (5 Bft)
24.12.2017 21:21 8,5 C 93 % 1013,1 hPa 0,0 l/m 26,5 km/h (4 Bft) SW 233 0 min 0 W/m 7,4 C -0,6 C 37,0 km/h (5 Bft)
24.12.2017 21:24 8,5 C 93 % 1013,2 hPa 0,0 l/m 17,8 km/h (3 Bft) W-SW 239 0 min 0 W/m 7,4 C 2,2 C 27,4 km/h (5 Bft)
24.12.2017 21:27 8,5 C 93 % 1013,1 hPa 0,0 l/m 23,6 km/h (4 Bft) W-SW 240 0 min 0 W/m 7,4 C 0,2 C 38,6 km/h (6 Bft)
24.12.2017 21:30 8,5 C 93 % 1013,1 hPa 0,0 l/m 23,0 km/h (4 Bft) S-SW 207 0 min 0 W/m 7,4 C 0,4 C 37,0 km/h (5 Bft)
24.12.2017 21:33 8,5 C 93 % 1013,2 hPa 0,0 l/m 23,1 km/h (4 Bft) SW 231 0 min 0 W/m 7,4 C 0,3 C 37,0 km/h (5 Bft)
24.12.2017 21:36 8,5 C 93 % 1013,3 hPa 0,0 l/m 22,8 km/h (4 Bft) SW 229 0 min 0 W/m 7,4 C 0,4 C 37,0 km/h (5 Bft)
24.12.2017 21:39 8,4 C 93 % 1013,2 hPa 0,0 l/m 24,6 km/h (4 Bft) W-SW 241 0 min 0 W/m 7,3 C -0,2 C 35,4 km/h (5 Bft)
24.12.2017 21:42 8,4 C 93 % 1013,2 hPa 0,0 l/m 24,5 km/h (4 Bft) SW 231 0 min 0 W/m 7,3 C -0,2 C 35,4 km/h (5 Bft)
24.12.2017 21:45 8,4 C 93 % 1013,3 hPa 0,0 l/m 24,4 km/h (4 Bft) S-SW 204 0 min 0 W/m 7,3 C -0,2 C 35,4 km/h (5 Bft)
24.12.2017 21:48 8,4 C 93 % 1013,3 hPa 0,0 l/m 23,0 km/h (4 Bft) SW 233 0 min 0 W/m 7,3 C 0,2 C 40,2 km/h (6 Bft)
24.12.2017 21:51 8,4 C 93 % 1013,3 hPa 0,0 l/m 24,9 km/h (4 Bft) SW 231 0 min 0 W/m 7,3 C -0,3 C 35,4 km/h (5 Bft)
24.12.2017 21:54 8,4 C 93 % 1013,3 hPa 0,0 l/m 25,5 km/h (4 Bft) S-SW 207 0 min 0 W/m 7,3 C -0,5 C 40,2 km/h (6 Bft)
24.12.2017 21:57 8,4 C 94 % 1013,4 hPa 0,0 l/m 25,5 km/h (4 Bft) W-SW 257 0 min 0 W/m 7,5 C -0,5 C 37,0 km/h (5 Bft)
24.12.2017 22:00 8,4 C 94 % 1013,4 hPa 0,0 l/m 23,7 km/h (4 Bft) W-SW 240 0 min 0 W/m 7,5 C 0,0 C 33,8 km/h (5 Bft)
24.12.2017 22:03 8,4 C 94 % 1013,4 hPa 0,0 l/m 23,8 km/h (4 Bft) SW 215 0 min 0 W/m 7,5 C 0,0 C 43,5 km/h (6 Bft)
24.12.2017 22:06 8,4 C 94 % 1013,4 hPa 0,0 l/m 22,6 km/h (4 Bft) SW 236 0 min 0 W/m 7,5 C 0,4 C 33,8 km/h (5 Bft)
24.12.2017 22:09 8,4 C 94 % 1013,4 hPa 0,0 l/m 24,4 km/h (4 Bft) SW 231 0 min 0 W/m 7,5 C -0,2 C 35,4 km/h (5 Bft)
24.12.2017 22:12 8,4 C 94 % 1013,3 hPa 0,0 l/m 26,8 km/h (4 Bft) S-SW 200 0 min 0 W/m 7,5 C -0,8 C 38,6 km/h (6 Bft)
24.12.2017 22:15 8,4 C 94 % 1013,3 hPa 0,0 l/m 27,9 km/h (5 Bft) W-SW 250 0 min 0 W/m 7,5 C -1,1 C 41,8 km/h (6 Bft)
24.12.2017 22:18 8,4 C 94 % 1013,2 hPa 0,0 l/m 26,5 km/h (4 Bft) SW 219 0 min 0 W/m 7,5 C -0,7 C 38,6 km/h (6 Bft)
24.12.2017 22:21 8,4 C 94 % 1013,3 hPa 0,0 l/m 25,9 km/h (4 Bft) SW 229 0 min 0 W/m 7,5 C -0,6 C 45,1 km/h (6 Bft)
24.12.2017 22:24 8,4 C 94 % 1013,2 hPa 0,0 l/m 24,2 km/h (4 Bft) W-NW 290 0 min 0 W/m 7,5 C -0,1 C 33,8 km/h (5 Bft)
24.12.2017 22:27 8,4 C 94 % 1013,1 hPa 0,0 l/m 26,9 km/h (4 Bft) SW 234 0 min 0 W/m 7,5 C -0,8 C 38,6 km/h (6 Bft)
24.12.2017 22:30 8,5 C 94 % 1013,1 hPa 0,0 l/m 27,6 km/h (5 Bft) S-SW 213 0 min 0 W/m 7,6 C -0,9 C 41,8 km/h (6 Bft)
24.12.2017 22:33 8,5 C 94 % 1013,1 hPa 0,0 l/m 29,5 km/h (5 Bft) S-SW 209 0 min 0 W/m 7,6 C -1,3 C 41,8 km/h (6 Bft)
24.12.2017 22:36 8,5 C 94 % 1013,0 hPa 0,0 l/m 28,4 km/h (5 Bft) S-SW 211 0 min 0 W/m 7,6 C -1,1 C 41,8 km/h (6 Bft)
24.12.2017 22:39 8,6 C 94 % 1013,0 hPa 0,0 l/m 29,9 km/h (5 Bft) W-SW 254 0 min 0 W/m 7,7 C -1,3 C 43,5 km/h (6 Bft)
24.12.2017 22:42 8,6 C 94 % 1013,1 hPa 0,0 l/m 32,3 km/h (5 Bft) W-SW 239 0 min 0 W/m 7,7 C -1,8 C 49,9 km/h (7 Bft)
24.12.2017 22:45 8,6 C 94 % 1013,1 hPa 0,0 l/m 25,4 km/h (4 Bft) S-SW 196 0 min 0 W/m 7,7 C -0,2 C 37,0 km/h (5 Bft)
24.12.2017 22:48 8,5 C 94 % 1013,1 hPa 0,0 l/m 22,5 km/h (4 Bft) SW 234 0 min 0 W/m 7,6 C 0,5 C 32,2 km/h (5 Bft)
24.12.2017 22:51 8,6 C 94 % 1013,0 hPa 0,0 l/m 22,8 km/h (4 Bft) SW 224 0 min 0 W/m 7,7 C 0,6 C 30,6 km/h (5 Bft)
24.12.2017 22:54 8,6 C 94 % 1013,1 hPa 0,0 l/m 24,7 km/h (4 Bft) SW 235 0 min 0 W/m 7,7 C 0,0 C 37,0 km/h (5 Bft)
24.12.2017 22:57 8,6 C 94 % 1013,1 hPa 0,0 l/m 24,4 km/h (4 Bft) W-SW 237 0 min 0 W/m 7,7 C 0,1 C 35,4 km/h (5 Bft)
24.12.2017 23:00 8,6 C 94 % 1013,0 hPa 0,0 l/m 23,1 km/h (4 Bft) SW 224 0 min 0 W/m 7,7 C 0,5 C 32,2 km/h (5 Bft)
24.12.2017 23:03 8,6 C 93 % 1013,0 hPa 0,0 l/m 24,8 km/h (4 Bft) SW 223 0 min 0 W/m 7,5 C -0,0 C 38,6 km/h (6 Bft)
24.12.2017 23:06 8,6 C 93 % 1013,0 hPa 0,0 l/m 27,7 km/h (5 Bft) W-SW 257 0 min 0 W/m 7,5 C -0,8 C 43,5 km/h (6 Bft)
24.12.2017 23:09 8,6 C 93 % 1013,0 hPa 0,0 l/m 25,8 km/h (4 Bft) W-SW 240 0 min 0 W/m 7,5 C -0,3 C 37,0 km/h (5 Bft)
24.12.2017 23:12 8,6 C 93 % 1012,9 hPa 0,0 l/m 25,9 km/h (4 Bft) SW 236 0 min 0 W/m 7,5 C -0,3 C 38,6 km/h (6 Bft)
24.12.2017 23:15 8,6 C 93 % 1013,0 hPa 0,0 l/m 24,4 km/h (4 Bft) W-SW 241 0 min 0 W/m 7,5 C 0,1 C 37,0 km/h (5 Bft)
24.12.2017 23:18 8,6 C 93 % 1013,0 hPa 0,0 l/m 26,6 km/h (4 Bft) SW 227 0 min 0 W/m 7,5 C -0,5 C 38,6 km/h (6 Bft)
24.12.2017 23:21 8,6 C 93 % 1013,0 hPa 0,0 l/m 27,0 km/h (5 Bft) S-SW 207 0 min 0 W/m 7,5 C -0,6 C 43,5 km/h (6 Bft)
24.12.2017 23:24 8,6 C 93 % 1013,1 hPa 0,0 l/m 24,8 km/h (4 Bft) SW 219 0 min 0 W/m 7,5 C -0,0 C 35,4 km/h (5 Bft)
24.12.2017 23:27 8,6 C 93 % 1013,0 hPa 0,0 l/m 26,0 km/h (4 Bft) SW 218 0 min 0 W/m 7,5 C -0,3 C 38,6 km/h (6 Bft)
24.12.2017 23:30 8,6 C 93 % 1013,0 hPa 0,0 l/m 23,9 km/h (4 Bft) W-SW 244 0 min 0 W/m 7,5 C 0,2 C 35,4 km/h (5 Bft)
24.12.2017 23:33 8,6 C 93 % 1013,0 hPa 0,0 l/m 23,4 km/h (4 Bft) SW 221 0 min 0 W/m 7,5 C 0,4 C 33,8 km/h (5 Bft)
24.12.2017 23:36 8,6 C 93 % 1013,0 hPa 0,0 l/m 24,5 km/h (4 Bft) W-SW 245 0 min 0 W/m 7,5 C 0,1 C 40,2 km/h (6 Bft)
24.12.2017 23:39 8,6 C 93 % 1013,0 hPa 0,0 l/m 25,5 km/h (4 Bft) SW 233 0 min 0 W/m 7,5 C -0,2 C 40,2 km/h (6 Bft)
24.12.2017 23:42 8,6 C 93 % 1013,0 hPa 0,0 l/m 26,5 km/h (4 Bft) SW 227 0 min 0 W/m 7,5 C -0,5 C 43,5 km/h (6 Bft)
24.12.2017 23:45 8,6 C 93 % 1013,1 hPa 0,0 l/m 23,4 km/h (4 Bft) S-SW 204 0 min 0 W/m 7,5 C 0,4 C 33,8 km/h (5 Bft)
24.12.2017 23:48 8,6 C 93 % 1013,1 hPa 0,0 l/m 24,1 km/h (4 Bft) SW 217 0 min 0 W/m 7,5 C 0,2 C 38,6 km/h (6 Bft)
24.12.2017 23:51 8,6 C 93 % 1013,1 hPa 0,0 l/m 24,7 km/h (4 Bft) W-SW 245 0 min 0 W/m 7,5 C 0,0 C 37,0 km/h (5 Bft)
24.12.2017 23:54 8,6 C 93 % 1013,0 hPa 0,0 l/m 24,1 km/h (4 Bft) W-SW 250 0 min 0 W/m 7,5 C 0,2 C 37,0 km/h (5 Bft)
24.12.2017 23:57 8,6 C 93 % 1013,0 hPa 0,0 l/m 23,4 km/h (4 Bft) W-SW 255 0 min 0 W/m 7,5 C 0,4 C 38,6 km/h (6 Bft)
_ Min-Zeit 00:06 20:51 19:33 - 04:33 - - - - 00:06 01:45 00:48
Minimum _ 7,3 C 92 % 1012,8 hPa - 13,8 km/h (3 Bft) - - - - 6,9 C -2,7 C 24,1 km/h (4 Bft)
_ Max-Zeit 18:24 06:21 00:24 06:24 22:42 - - 00:00 12:21 18:24 04:33 10:06
Maximum _ 8,8 C 98 % 1019,2 hPa 0,2 l/m 32,3 km/h
W-SW (5 Bft)
- - 0 min 39 W/m 7,9 C 2,8 C 51,5 km/h
W-SW (7 Bft)
Durchschnitt _ 8,0 C 96 % 1015,8 hPa #1,8 l/m 22,6 km/h (4 Bft) SW - #0 min. 17 W/m 7,4 C -0,1 C 36,6 km/h (5 Bft)
2017 Cux-Wetter.de -Die Nutzung der Wetterdaten nur mit ausdrcklicher Genehmigung